Time,TemperatureF,DewpointF,PressureIn,WindDirection,WindDirectionDegrees,WindSpeedMPH,WindSpeedGustMPH,Humidity,HourlyPrecipIn,Conditions,Clouds,dailyrainin,SoftwareType,DateUTC
2013-05-26 00:01:00,33.3,32.8,29.82,SE,134,0.0,2.0,98,0.00,,,0.76,Wunderground v.1.15,2013-05-26 04:01:00,
2013-05-26 00:02:00,33.3,32.8,29.82,NNE,28,7.0,7.0,98,0.00,,,0.76,Wunderground v.1.15,2013-05-26 04:02:00,
2013-05-26 00:03:00,33.3,32.8,29.82,NNE,24,2.0,7.0,98,0.00,,,0.76,Wunderground v.1.15,2013-05-26 04:03:00,
2013-05-26 00:07:00,33.2,32.7,29.82,North,355,8.0,8.0,98,0.00,,,0.00,Wunderground v.1.15,2013-05-26 04:07:00,
2013-05-26 00:09:00,33.2,32.7,29.82,NE,39,2.0,8.0,98,0.00,,,0.00,Wunderground v.1.15,2013-05-26 04:09:00,
2013-05-26 00:10:00,33.2,32.7,29.81,WNW,298,3.0,3.0,98,0.00,,,0.00,Wunderground v.1.15,2013-05-26 04:10:00,
2013-05-26 00:13:00,33.2,32.7,29.81,North,355,5.0,5.0,98,0.00,,,0.00,Wunderground v.1.15,2013-05-26 04:13:00,
2013-05-26 00:14:00,33.2,32.7,29.82,WSW,255,0.0,5.0,98,0.00,,,0.00,Wunderground v.1.15,2013-05-26 04:14:00,
2013-05-26 00:15:00,33.2,32.7,29.81,WNW,303,0.0,5.0,98,0.00,,,0.00,Wunderground v.1.15,2013-05-26 04:15:00,
2013-05-26 00:17:00,33.2,32.7,29.81,SSW,212,1.0,5.0,98,0.00,,,0.00,Wunderground v.1.15,2013-05-26 04:17:00,
2013-05-26 00:19:00,33.2,32.7,29.81,West,279,1.0,5.0,98,0.00,,,0.00,Wunderground v.1.15,2013-05-26 04:19:00,
2013-05-26 00:20:00,33.2,32.7,29.81,NW,318,9.0,9.0,98,0.00,,,0.00,Wunderground v.1.15,2013-05-26 04:20:00,
2013-05-26 00:21:00,33.2,32.7,29.81,NW,306,2.0,9.0,98,0.00,,,0.00,Wunderground v.1.15,2013-05-26 04:21:00,
2013-05-26 00:25:00,33.2,32.7,29.81,NW,325,0.0,9.0,98,0.00,,,0.00,Wunderground v.1.15,2013-05-26 04:25:00,
2013-05-26 00:27:00,33.2,32.7,29.81,NE,55,0.0,9.0,98,0.00,,,0.00,Wunderground v.1.15,2013-05-26 04:27:00,
2013-05-26 00:28:00,33.2,32.7,29.81,SSW,195,0.0,9.0,98,0.00,,,0.01,Wunderground v.1.15,2013-05-26 04:28:00,
2013-05-26 00:31:00,33.2,32.7,29.81,NW,323,1.0,5.0,98,0.00,,,0.01,Wunderground v.1.15,2013-05-26 04:31:00,
2013-05-26 00:32:00,33.2,33.0,29.81,SSW,198,0.0,5.0,99,0.00,,,0.01,Wunderground v.1.15,2013-05-26 04:32:00,
2013-05-26 00:33:00,33.2,33.0,29.81,North,5,5.0,5.0,99,0.00,,,0.01,Wunderground v.1.15,2013-05-26 04:33:00,
2013-05-26 00:37:00,33.2,33.0,29.81,WSW,252,2.0,5.0,99,0.00,,,0.01,Wunderground v.1.15,2013-05-26 04:37:00,
2013-05-26 00:38:00,33.3,33.0,29.81,NNW,341,0.0,5.0,99,0.00,,,0.01,Wunderground v.1.15,2013-05-26 04:38:00,
2013-05-26 00:39:00,33.3,33.0,29.81,North,355,1.0,5.0,99,0.00,,,0.01,Wunderground v.1.15,2013-05-26 04:39:00,
2013-05-26 00:40:00,33.3,33.0,29.81,North,350,4.0,4.0,99,0.00,,,0.01,Wunderground v.1.15,2013-05-26 04:40:00,
2013-05-26 00:42:00,33.3,33.0,29.81,NW,309,2.0,4.0,99,0.00,,,0.01,Wunderground v.1.15,2013-05-26 04:42:00,
2013-05-26 00:46:00,33.3,32.8,29.81,NNW,346,1.0,4.0,98,0.00,,,0.01,Wunderground v.1.15,2013-05-26 04:46:00,
2013-05-26 00:47:00,33.3,32.8,29.81,SW,223,0.0,4.0,98,0.00,,,0.01,Wunderground v.1.15,2013-05-26 04:47:00,
2013-05-26 00:48:00,33.3,33.0,29.81,NW,323,3.0,4.0,99,0.00,,,0.01,Wunderground v.1.15,2013-05-26 04:48:00,
2013-05-26 00:50:00,33.3,33.0,29.81,ESE,103,0.0,2.0,99,0.00,,,0.01,Wunderground v.1.15,2013-05-26 04:50:00,
2013-05-26 00:54:00,33.4,33.1,29.81,NE,53,1.0,3.0,99,0.00,,,0.01,Wunderground v.1.15,2013-05-26 04:54:00,
2013-05-26 00:55:00,33.4,33.1,29.81,North,351,5.0,5.0,99,0.00,,,0.01,Wunderground v.1.15,2013-05-26 04:55:00,
2013-05-26 00:58:00,33.4,33.1,29.81,West,277,0.0,5.0,99,0.00,,,0.01,Wunderground v.1.15,2013-05-26 04:58:00,
2013-05-26 01:01:00,33.4,33.1,29.81,South,188,1.0,2.0,99,0.00,,,0.02,Wunderground v.1.15,2013-05-26 05:01:00,
2013-05-26 01:02:00,33.4,33.1,29.81,NNW,342,0.0,2.0,99,0.00,,,0.02,Wunderground v.1.15,2013-05-26 05:02:00,
2013-05-26 01:05:00,33.4,33.1,29.81,NNE,24,2.0,2.0,99,0.00,,,0.02,Wunderground v.1.15,2013-05-26 05:05:00,
2013-05-26 01:06:00,33.5,33.2,29.81,West,266,2.0,2.0,99,0.00,,,0.02,Wunderground v.1.15,2013-05-26 05:06:00,
2013-05-26 01:08:00,33.5,33.2,29.81,North,9,0.0,3.0,99,0.00,,,0.02,Wunderground v.1.15,2013-05-26 05:08:00,
2013-05-26 01:11:00,33.5,33.2,29.80,SW,230,1.0,2.0,99,0.00,,,0.02,Wunderground v.1.15,2013-05-26 05:11:00,
2013-05-26 01:14:00,33.5,33.2,29.80,West,275,4.0,10.0,99,0.00,,,0.02,Wunderground v.1.15,2013-05-26 05:14:00,
2013-05-26 01:17:00,33.5,33.2,29.80,NW,309,7.0,10.0,99,0.00,,,0.02,Wunderground v.1.15,2013-05-26 05:17:00,
2013-05-26 01:18:00,33.5,33.2,29.80,West,259,3.0,10.0,99,0.00,,,0.02,Wunderground v.1.15,2013-05-26 05:18:00,
2013-05-26 01:21:00,33.5,33.2,29.80,NNW,345,2.0,9.0,99,0.00,,,0.02,Wunderground v.1.15,2013-05-26 05:21:00,
2013-05-26 01:22:00,33.6,33.3,29.81,NNW,335,7.0,9.0,99,0.00,,,0.02,Wunderground v.1.15,2013-05-26 05:22:00,
2013-05-26 01:24:00,33.6,33.3,29.80,WNW,288,3.0,9.0,99,0.00,,,0.02,Wunderground v.1.15,2013-05-26 05:24:00,
2013-05-26 01:26:00,33.6,33.3,29.80,WSW,248,6.0,9.0,99,0.00,,,0.02,Wunderground v.1.15,2013-05-26 05:26:00,
2013-05-26 01:28:00,33.6,33.3,29.80,NW,306,4.0,9.0,99,0.00,,,0.02,Wunderground v.1.15,2013-05-26 05:28:00,
2013-05-26 01:30:00,33.6,33.3,29.79,NW,306,4.0,4.0,99,0.00,,,0.02,Wunderground v.1.15,2013-05-26 05:30:00,
2013-05-26 01:31:00,33.6,33.3,29.79,South,178,0.0,4.0,99,0.00,,,0.02,Wunderground v.1.15,2013-05-26 05:31:00,
2013-05-26 01:33:00,33.6,33.3,29.80,North,360,1.0,4.0,99,0.00,,,0.02,Wunderground v.1.15,2013-05-26 05:33:00,
2013-05-26 01:35:00,33.6,33.3,29.79,SW,222,2.0,4.0,99,0.00,,,0.02,Wunderground v.1.15,2013-05-26 05:35:00,
2013-05-26 01:37:00,33.6,33.3,29.79,SW,225,2.0,4.0,99,0.00,,,0.02,Wunderground v.1.15,2013-05-26 05:37:00,
2013-05-26 01:38:00,33.7,33.4,29.79,SSE,167,1.0,4.0,99,0.00,,,0.02,Wunderground v.1.15,2013-05-26 05:38:00,
2013-05-26 01:40:00,33.7,33.4,29.80,North,5,9.0,9.0,99,0.00,,,0.03,Wunderground v.1.15,2013-05-26 05:40:00,
2013-05-26 01:41:00,33.7,33.4,29.79,SW,221,3.0,9.0,99,0.00,,,0.03,Wunderground v.1.15,2013-05-26 05:41:00,
2013-05-26 01:42:00,33.7,33.4,29.80,NW,311,0.0,9.0,99,0.00,,,0.03,Wunderground v.1.15,2013-05-26 05:42:00,
2013-05-26 01:44:00,33.7,33.4,29.80,WSW,252,2.0,9.0,99,0.00,,,0.03,Wunderground v.1.15,2013-05-26 05:44:00,
2013-05-26 01:45:00,33.7,33.4,29.79,North,5,0.0,9.0,99,0.00,,,0.03,Wunderground v.1.15,2013-05-26 05:45:00,
2013-05-26 01:47:00,33.7,33.4,29.80,NW,306,0.0,9.0,99,0.00,,,0.03,Wunderground v.1.15,2013-05-26 05:47:00,
2013-05-26 01:48:00,33.7,33.4,29.80,SSW,198,2.0,9.0,99,0.00,,,0.03,Wunderground v.1.15,2013-05-26 05:48:00,
2013-05-26 01:51:00,33.8,33.5,29.79,WNW,288,2.0,2.0,99,0.00,,,0.03,Wunderground v.1.15,2013-05-26 05:51:00,
2013-05-26 01:54:00,33.8,33.5,29.80,NE,42,2.0,4.0,99,0.00,,,0.03,Wunderground v.1.15,2013-05-26 05:54:00,
2013-05-26 01:58:00,33.9,33.6,29.79,West,277,7.0,9.0,99,0.00,,,0.03,Wunderground v.1.15,2013-05-26 05:58:00,
2013-05-26 01:59:00,33.9,33.6,29.79,NNE,28,3.0,9.0,99,0.00,,,0.03,Wunderground v.1.15,2013-05-26 05:59:00,
2013-05-26 02:00:00,33.9,33.6,29.79,North,355,2.0,4.0,99,0.00,,,0.03,Wunderground v.1.15,2013-05-26 06:00:00,
2013-05-26 02:01:00,33.9,33.6,29.79,NW,304,1.0,4.0,99,0.00,,,0.03,Wunderground v.1.15,2013-05-26 06:01:00,
2013-05-26 02:03:00,33.9,33.6,29.79,NNW,342,0.0,7.0,99,0.00,,,0.03,Wunderground v.1.15,2013-05-26 06:03:00,
2013-05-26 02:04:00,33.9,33.6,29.79,NNW,330,5.0,8.0,99,0.00,,,0.03,Wunderground v.1.15,2013-05-26 06:04:00,
2013-05-26 02:05:00,34.0,33.7,29.79,SW,230,10.0,10.0,99,0.00,,,0.03,Wunderground v.1.15,2013-05-26 06:05:00,
2013-05-26 02:06:00,34.0,33.7,29.79,WNW,300,2.0,12.0,99,0.00,,,0.03,Wunderground v.1.15,2013-05-26 06:06:00,
2013-05-26 02:08:00,34.0,33.7,29.79,WSW,258,0.0,12.0,99,0.00,,,0.03,Wunderground v.1.15,2013-05-26 06:08:00,
2013-05-26 02:09:00,34.0,33.7,29.79,WSW,246,4.0,12.0,99,0.00,,,0.03,Wunderground v.1.15,2013-05-26 06:09:00,
2013-05-26 02:10:00,34.0,33.7,29.79,East,100,5.0,5.0,99,0.00,,,0.03,Wunderground v.1.15,2013-05-26 06:10:00,
2013-05-26 02:11:00,34.0,33.7,29.79,SSW,207,2.0,6.0,99,0.00,,,0.03,Wunderground v.1.15,2013-05-26 06:11:00,
2013-05-26 02:13:00,34.0,33.7,29.79,NNE,29,0.0,6.0,99,0.00,,,0.03,Wunderground v.1.15,2013-05-26 06:13:00,
2013-05-26 02:14:00,34.1,33.8,29.79,SW,235,2.0,9.0,99,0.00,,,0.03,Wunderground v.1.15,2013-05-26 06:14:00,
2013-05-26 02:16:00,34.1,33.8,29.79,SW,226,0.0,9.0,99,0.00,,,0.03,Wunderground v.1.15,2013-05-26 06:16:00,
2013-05-26 02:18:00,34.1,33.8,29.79,West,276,2.0,9.0,99,0.00,,,0.03,Wunderground v.1.15,2013-05-26 06:18:00,
2013-05-26 02:20:00,34.1,33.8,29.79,NNW,336,2.0,3.0,99,0.00,,,0.03,Wunderground v.1.15,2013-05-26 06:20:00,
2013-05-26 02:21:00,34.1,33.8,29.79,SSW,196,2.0,10.0,99,0.00,,,0.04,Wunderground v.1.15,2013-05-26 06:21:00,
2013-05-26 02:22:00,34.1,33.8,29.79,North,9,4.0,10.0,99,0.00,,,0.04,Wunderground v.1.15,2013-05-26 06:22:00,
2013-05-26 02:23:00,34.1,33.8,29.78,NE,56,2.0,11.0,99,0.00,,,0.04,Wunderground v.1.15,2013-05-26 06:23:00,
2013-05-26 02:25:00,34.2,33.9,29.78,NE,46,14.0,14.0,99,0.00,,,0.04,Wunderground v.1.15,2013-05-26 06:25:00,
2013-05-26 02:26:00,34.2,33.9,29.78,WSW,254,4.0,14.0,99,0.00,,,0.04,Wunderground v.1.15,2013-05-26 06:26:00,
2013-05-26 02:27:00,34.2,33.9,29.78,WSW,249,2.0,14.0,99,0.00,,,0.04,Wunderground v.1.15,2013-05-26 06:27:00,
2013-05-26 02:28:00,34.2,33.9,29.79,WNW,296,1.0,14.0,99,0.00,,,0.04,Wunderground v.1.15,2013-05-26 06:28:00,
2013-05-26 02:30:00,34.2,33.9,29.79,NW,325,4.0,5.0,99,0.00,,,0.04,Wunderground v.1.15,2013-05-26 06:30:00,
2013-05-26 02:32:00,34.2,33.9,29.79,WSW,242,5.0,8.0,99,0.00,,,0.04,Wunderground v.1.15,2013-05-26 06:32:00,
2013-05-26 02:33:00,34.2,33.9,29.78,NNW,336,0.0,8.0,99,0.00,,,0.04,Wunderground v.1.15,2013-05-26 06:33:00,
2013-05-26 02:35:00,34.2,33.9,29.79,NE,41,1.0,8.0,99,0.00,,,0.04,Wunderground v.1.15,2013-05-26 06:35:00,
2013-05-26 02:37:00,34.2,33.9,29.78,West,274,2.0,8.0,99,0.00,,,0.04,Wunderground v.1.15,2013-05-26 06:37:00,
2013-05-26 02:38:00,34.3,34.0,29.79,NE,46,5.0,8.0,99,0.00,,,0.04,Wunderground v.1.15,2013-05-26 06:38:00,
2013-05-26 02:40:00,34.3,34.0,29.78,South,185,2.0,3.0,99,0.00,,,0.04,Wunderground v.1.15,2013-05-26 06:40:00,
2013-05-26 02:42:00,34.3,34.0,29.79,NW,315,5.0,12.0,99,0.00,,,0.04,Wunderground v.1.15,2013-05-26 06:42:00,
2013-05-26 02:43:00,34.3,34.0,29.79,North,360,2.0,12.0,99,0.00,,,0.04,Wunderground v.1.15,2013-05-26 06:43:00,
2013-05-26 02:44:00,34.3,34.0,29.78,SE,134,5.0,12.0,99,0.00,,,0.04,Wunderground v.1.15,2013-05-26 06:44:00,
2013-05-26 02:45:00,34.3,34.0,29.78,SW,235,9.0,12.0,99,0.00,,,0.04,Wunderground v.1.15,2013-05-26 06:45:00,
2013-05-26 02:47:00,34.4,34.1,29.79,WNW,292,3.0,12.0,99,0.00,,,0.04,Wunderground v.1.15,2013-05-26 06:47:00,
2013-05-26 02:49:00,34.4,34.1,29.78,West,269,2.0,12.0,99,0.00,,,0.04,Wunderground v.1.15,2013-05-26 06:49:00,
2013-05-26 02:50:00,34.4,34.1,29.78,NNE,24,2.0,7.0,99,0.00,,,0.04,Wunderground v.1.15,2013-05-26 06:50:00,
2013-05-26 02:52:00,34.4,34.1,29.78,NNW,339,10.0,13.0,99,0.00,,,0.04,Wunderground v.1.15,2013-05-26 06:52:00,
2013-05-26 02:54:00,34.5,34.2,29.78,South,176,2.0,13.0,99,0.00,,,0.04,Wunderground v.1.15,2013-05-26 06:54:00,
2013-05-26 02:56:00,34.6,34.3,29.78,NNW,330,5.0,13.0,99,0.00,,,0.04,Wunderground v.1.15,2013-05-26 06:56:00,
2013-05-26 02:57:00,34.5,34.2,29.78,NW,325,0.0,13.0,99,0.00,,,0.05,Wunderground v.1.15,2013-05-26 06:57:00,
2013-05-26 02:58:00,34.6,34.3,29.78,NW,311,7.0,13.0,99,0.00,,,0.05,Wunderground v.1.15,2013-05-26 06:58:00,
2013-05-26 03:00:00,34.6,34.3,29.79,NNW,333,4.0,5.0,99,0.00,,,0.05,Wunderground v.1.15,2013-05-26 07:00:00,
2013-05-26 03:01:00,34.5,34.2,29.78,SW,232,2.0,6.0,99,0.00,,,0.05,Wunderground v.1.15,2013-05-26 07:01:00,
2013-05-26 03:02:00,34.6,34.3,29.78,North,5,8.0,15.0,99,0.00,,,0.05,Wunderground v.1.15,2013-05-26 07:02:00,
2013-05-26 03:03:00,34.5,34.2,29.78,North,351,4.0,15.0,99,0.00,,,0.05,Wunderground v.1.15,2013-05-26 07:03:00,
2013-05-26 03:05:00,34.6,34.3,29.78,NNW,331,10.0,15.0,99,0.00,,,0.05,Wunderground v.1.15,2013-05-26 07:05:00,
2013-05-26 03:06:00,34.6,34.3,29.78,NNW,327,6.0,15.0,99,0.00,,,0.05,Wunderground v.1.15,2013-05-26 07:06:00,
2013-05-26 03:07:00,34.6,34.3,29.78,NNE,16,4.0,15.0,99,0.00,,,0.05,Wunderground v.1.15,2013-05-26 07:07:00,
2013-05-26 03:08:00,34.6,34.3,29.79,North,360,2.0,15.0,99,0.00,,,0.05,Wunderground v.1.15,2013-05-26 07:08:00,
2013-05-26 03:09:00,34.6,34.3,29.78,WNW,300,7.0,15.0,99,0.00,,,0.05,Wunderground v.1.15,2013-05-26 07:09:00,
2013-05-26 03:11:00,34.7,34.4,29.78,NNE,13,2.0,8.0,99,0.00,,,0.05,Wunderground v.1.15,2013-05-26 07:11:00,
2013-05-26 03:13:00,34.7,34.4,29.78,NNW,336,1.0,13.0,99,0.00,,,0.05,Wunderground v.1.15,2013-05-26 07:13:00,
2013-05-26 03:14:00,34.7,34.4,29.78,SW,229,2.0,13.0,99,0.00,,,0.05,Wunderground v.1.15,2013-05-26 07:14:00,
2013-05-26 03:16:00,34.7,34.4,29.78,NNE,12,7.0,13.0,99,0.00,,,0.05,Wunderground v.1.15,2013-05-26 07:16:00,
2013-05-26 03:18:00,34.8,34.5,29.78,WNW,302,6.0,14.0,99,0.00,,,0.05,Wunderground v.1.15,2013-05-26 07:18:00,
2013-05-26 03:19:00,34.8,34.5,29.78,WNW,282,6.0,14.0,99,0.00,,,0.05,Wunderground v.1.15,2013-05-26 07:19:00,
2013-05-26 03:21:00,34.8,34.5,29.78,NW,307,6.0,10.0,99,0.00,,,0.05,Wunderground v.1.15,2013-05-26 07:21:00,
2013-05-26 03:23:00,34.9,34.6,29.78,WSW,240,9.0,17.0,99,0.00,,,0.05,Wunderground v.1.15,2013-05-26 07:23:00,
2013-05-26 03:24:00,34.9,34.6,29.78,NW,313,0.0,17.0,99,0.00,,,0.05,Wunderground v.1.15,2013-05-26 07:24:00,
2013-05-26 03:25:00,34.9,34.6,29.78,West,265,1.0,17.0,99,0.00,,,0.05,Wunderground v.1.15,2013-05-26 07:25:00,
2013-05-26 03:26:00,34.9,34.6,29.78,West,263,5.0,17.0,99,0.00,,,0.05,Wunderground v.1.15,2013-05-26 07:26:00,
2013-05-26 03:29:00,35.0,34.7,29.79,NNW,346,0.0,18.0,99,0.00,,,0.06,Wunderground v.1.15,2013-05-26 07:29:00,
2013-05-26 03:30:00,35.0,34.7,29.78,NNW,345,3.0,7.0,99,0.00,,,0.06,Wunderground v.1.15,2013-05-26 07:30:00,
2013-05-26 03:31:00,35.0,34.7,29.78,SSW,210,4.0,10.0,99,0.00,,,0.06,Wunderground v.1.15,2013-05-26 07:31:00,
2013-05-26 03:32:00,35.0,34.7,29.78,NE,42,8.0,12.0,99,0.00,,,0.06,Wunderground v.1.15,2013-05-26 07:32:00,
2013-05-26 03:34:00,35.0,34.7,29.78,West,262,5.0,12.0,99,0.00,,,0.06,Wunderground v.1.15,2013-05-26 07:34:00,
2013-05-26 03:35:00,35.1,34.8,29.79,North,355,4.0,12.0,99,0.00,,,0.06,Wunderground v.1.15,2013-05-26 07:35:00,
2013-05-26 03:36:00,35.1,34.8,29.78,NW,319,7.0,12.0,99,0.00,,,0.06,Wunderground v.1.15,2013-05-26 07:36:00,
2013-05-26 03:37:00,35.1,34.8,29.79,SSW,198,3.0,16.0,99,0.00,,,0.06,Wunderground v.1.15,2013-05-26 07:37:00,
2013-05-26 03:39:00,35.1,34.8,29.79,WNW,296,9.0,20.0,99,0.00,,,0.06,Wunderground v.1.15,2013-05-26 07:39:00,
2013-05-26 03:40:00,35.1,34.8,29.79,NW,309,5.0,10.0,99,0.00,,,0.06,Wunderground v.1.15,2013-05-26 07:40:00,
2013-05-26 03:41:00,35.1,34.8,29.79,SSW,199,8.0,10.0,99,0.00,,,0.06,Wunderground v.1.15,2013-05-26 07:41:00,
2013-05-26 03:42:00,35.2,34.9,29.78,WNW,303,4.0,10.0,99,0.00,,,0.06,Wunderground v.1.15,2013-05-26 07:42:00,
2013-05-26 03:45:00,35.2,34.9,29.78,NNW,334,2.0,15.0,99,0.00,,,0.06,Wunderground v.1.15,2013-05-26 07:45:00,
2013-05-26 03:47:00,35.2,34.9,29.79,NNE,26,5.0,19.0,99,0.00,,,0.06,Wunderground v.1.15,2013-05-26 07:47:00,
2013-05-26 03:48:00,35.3,35.0,29.79,WNW,296,4.0,19.0,99,0.00,,,0.06,Wunderground v.1.15,2013-05-26 07:48:00,
2013-05-26 03:50:00,35.3,35.0,29.78,WNW,298,12.0,13.0,99,0.00,,,0.06,Wunderground v.1.15,2013-05-26 07:50:00,
2013-05-26 03:51:00,35.2,34.9,29.79,SSW,200,5.0,13.0,99,0.00,,,0.07,Wunderground v.1.15,2013-05-26 07:51:00,
2013-05-26 03:52:00,35.3,35.0,29.79,SW,215,1.0,13.0,99,0.00,,,0.07,Wunderground v.1.15,2013-05-26 07:52:00,
2013-05-26 03:53:00,35.2,34.9,29.78,SSE,157,7.0,13.0,99,0.00,,,0.07,Wunderground v.1.15,2013-05-26 07:53:00,
2013-05-26 03:55:00,35.2,34.9,29.79,SSW,192,0.0,13.0,99,0.00,,,0.07,Wunderground v.1.15,2013-05-26 07:55:00,
2013-05-26 03:57:00,35.2,34.9,29.79,WSW,249,9.0,13.0,99,0.00,,,0.07,Wunderground v.1.15,2013-05-26 07:57:00,
2013-05-26 03:59:00,35.2,34.9,29.79,WNW,287,2.0,13.0,99,0.00,,,0.07,Wunderground v.1.15,2013-05-26 07:59:00,
2013-05-26 04:00:00,35.3,35.0,29.79,SW,219,6.0,10.0,99,0.00,,,0.07,Wunderground v.1.15,2013-05-26 08:00:00,
2013-05-26 04:01:00,35.3,35.0,29.79,WNW,292,1.0,10.0,99,0.00,,,0.07,Wunderground v.1.15,2013-05-26 08:01:00,
2013-05-26 04:02:00,35.3,35.0,29.79,WNW,297,3.0,11.0,99,0.00,,,0.07,Wunderground v.1.15,2013-05-26 08:02:00,
2013-05-26 04:05:00,35.3,35.0,29.78,WSW,245,6.0,12.0,99,0.00,,,0.07,Wunderground v.1.15,2013-05-26 08:05:00,
2013-05-26 04:06:00,35.4,35.1,29.79,NW,310,10.0,16.0,99,0.00,,,0.07,Wunderground v.1.15,2013-05-26 08:06:00,
2013-05-26 04:07:00,35.3,35.0,29.79,NW,315,2.0,16.0,99,0.00,,,0.07,Wunderground v.1.15,2013-05-26 08:07:00,
2013-05-26 04:09:00,35.3,35.0,29.78,West,269,7.0,16.0,99,0.00,,,0.07,Wunderground v.1.15,2013-05-26 08:09:00,
2013-05-26 04:10:00,35.4,35.1,29.79,WNW,296,4.0,6.0,99,0.00,,,0.07,Wunderground v.1.15,2013-05-26 08:10:00,
2013-05-26 04:11:00,35.4,35.1,29.79,NNW,337,0.0,10.0,99,0.00,,,0.07,Wunderground v.1.15,2013-05-26 08:11:00,
2013-05-26 04:13:00,35.4,35.1,29.78,WSW,254,4.0,10.0,99,0.00,,,0.07,Wunderground v.1.15,2013-05-26 08:13:00,
2013-05-26 04:14:00,35.3,35.0,29.79,WNW,286,5.0,11.0,99,0.00,,,0.07,Wunderground v.1.15,2013-05-26 08:14:00,
2013-05-26 04:15:00,35.4,35.1,29.78,SSW,211,2.0,11.0,99,0.00,,,0.08,Wunderground v.1.15,2013-05-26 08:15:00,
2013-05-26 04:16:00,35.4,35.1,29.79,SW,228,3.0,11.0,99,0.00,,,0.08,Wunderground v.1.15,2013-05-26 08:16:00,
2013-05-26 04:18:00,35.4,35.1,29.79,North,355,10.0,14.0,99,0.00,,,0.08,Wunderground v.1.15,2013-05-26 08:18:00,
2013-05-26 04:19:00,35.4,35.1,29.78,WSW,257,9.0,14.0,99,0.00,,,0.08,Wunderground v.1.15,2013-05-26 08:19:00,
2013-05-26 04:20:00,35.4,35.1,29.79,West,277,9.0,17.0,99,0.00,,,0.08,Wunderground v.1.15,2013-05-26 08:20:00,
2013-05-26 04:21:00,35.4,35.1,29.79,North,355,5.0,17.0,99,0.00,,,0.08,Wunderground v.1.15,2013-05-26 08:21:00,
2013-05-26 04:22:00,35.5,35.2,29.79,WNW,292,2.0,17.0,99,0.00,,,0.08,Wunderground v.1.15,2013-05-26 08:22:00,
2013-05-26 04:23:00,35.4,35.1,29.79,NNE,25,5.0,17.0,99,0.00,,,0.08,Wunderground v.1.15,2013-05-26 08:23:00,
2013-05-26 04:24:00,35.5,35.2,29.78,WSW,257,4.0,17.0,99,0.00,,,0.08,Wunderground v.1.15,2013-05-26 08:24:00,
2013-05-26 04:26:00,35.4,35.1,29.79,South,180,3.0,17.0,99,0.00,,,0.08,Wunderground v.1.15,2013-05-26 08:26:00,
2013-05-26 04:27:00,35.4,35.1,29.79,SSW,198,3.0,17.0,99,0.00,,,0.08,Wunderground v.1.15,2013-05-26 08:27:00,
2013-05-26 04:28:00,35.4,35.1,29.79,NW,313,3.0,17.0,99,0.00,,,0.08,Wunderground v.1.15,2013-05-26 08:28:00,
2013-05-26 04:30:00,35.4,35.1,29.79,North,5,6.0,6.0,99,0.00,,,0.08,Wunderground v.1.15,2013-05-26 08:30:00,
2013-05-26 04:31:00,35.4,35.1,29.79,NNW,327,12.0,19.0,99,0.00,,,0.08,Wunderground v.1.15,2013-05-26 08:31:00,
2013-05-26 04:33:00,35.4,35.1,29.79,North,360,8.0,19.0,99,0.00,,,0.08,Wunderground v.1.15,2013-05-26 08:33:00,
2013-05-26 04:35:00,35.4,35.1,29.79,NNE,15,2.0,19.0,99,0.00,,,0.08,Wunderground v.1.15,2013-05-26 08:35:00,
2013-05-26 04:36:00,35.4,35.1,29.80,NW,311,4.0,19.0,99,0.00,,,0.08,Wunderground v.1.15,2013-05-26 08:36:00,
2013-05-26 04:38:00,35.4,35.1,29.79,North,5,6.0,19.0,99,0.00,,,0.09,Wunderground v.1.15,2013-05-26 08:38:00,
2013-05-26 04:40:00,35.3,35.0,29.79,North,355,13.0,13.0,99,0.00,,,0.09,Wunderground v.1.15,2013-05-26 08:40:00,
2013-05-26 04:41:00,35.3,35.0,29.79,SSW,208,6.0,13.0,99,0.00,,,0.09,Wunderground v.1.15,2013-05-26 08:41:00,
2013-05-26 04:43:00,35.3,35.0,29.79,North,355,6.0,13.0,99,0.00,,,0.09,Wunderground v.1.15,2013-05-26 08:43:00,
2013-05-26 04:46:00,35.3,35.0,29.79,NNW,328,3.0,13.0,99,0.00,,,0.09,Wunderground v.1.15,2013-05-26 08:46:00,
2013-05-26 04:47:00,35.3,35.0,29.80,WNW,285,3.0,13.0,99,0.00,,,0.09,Wunderground v.1.15,2013-05-26 08:47:00,
2013-05-26 04:48:00,35.3,35.0,29.79,NE,42,2.0,13.0,99,0.00,,,0.09,Wunderground v.1.15,2013-05-26 08:48:00,
2013-05-26 04:49:00,35.3,35.0,29.80,North,349,9.0,13.0,99,0.00,,,0.09,Wunderground v.1.15,2013-05-26 08:49:00,
2013-05-26 04:51:00,35.3,35.0,29.79,SSE,167,7.0,12.0,99,0.00,,,0.09,Wunderground v.1.15,2013-05-26 08:51:00,
2013-05-26 04:53:00,35.3,35.0,29.80,SSE,165,5.0,16.0,99,0.00,,,0.09,Wunderground v.1.15,2013-05-26 08:53:00,
2013-05-26 04:54:00,35.2,34.9,29.80,SSW,204,2.0,16.0,99,0.00,,,0.09,Wunderground v.1.15,2013-05-26 08:54:00,
2013-05-26 04:57:00,35.2,34.9,29.80,West,269,16.0,16.0,99,0.00,,,0.09,Wunderground v.1.15,2013-05-26 08:57:00,
2013-05-26 04:58:00,35.2,34.9,29.79,North,355,11.0,16.0,99,0.00,,,0.09,Wunderground v.1.15,2013-05-26 08:58:00,
2013-05-26 05:00:00,35.2,34.9,29.79,WNW,303,5.0,6.0,99,0.00,,,0.09,Wunderground v.1.15,2013-05-26 09:00:00,
2013-05-26 05:02:00,35.2,34.9,29.80,NW,315,3.0,17.0,99,0.00,,,0.10,Wunderground v.1.15,2013-05-26 09:02:00,
2013-05-26 05:03:00,35.2,34.9,29.80,WSW,248,4.0,17.0,99,0.00,,,0.10,Wunderground v.1.15,2013-05-26 09:03:00,
2013-05-26 05:05:00,35.2,34.9,29.80,North,351,6.0,17.0,99,0.00,,,0.10,Wunderground v.1.15,2013-05-26 09:05:00,
2013-05-26 05:08:00,35.2,34.9,29.80,North,360,5.0,17.0,99,0.00,,,0.10,Wunderground v.1.15,2013-05-26 09:08:00,
2013-05-26 05:09:00,35.2,34.9,29.80,WNW,300,4.0,17.0,99,0.00,,,0.10,Wunderground v.1.15,2013-05-26 09:09:00,
2013-05-26 05:11:00,35.2,34.9,29.80,NE,49,5.0,10.0,99,0.00,,,0.10,Wunderground v.1.15,2013-05-26 09:11:00,
2013-05-26 05:13:00,35.2,34.9,29.80,NNW,332,5.0,11.0,99,0.00,,,0.10,Wunderground v.1.15,2013-05-26 09:13:00,
2013-05-26 05:14:00,35.2,34.9,29.80,NE,46,3.0,11.0,99,0.00,,,0.10,Wunderground v.1.15,2013-05-26 09:14:00,
2013-05-26 05:16:00,35.1,34.8,29.80,WNW,282,5.0,11.0,99,0.00,,,0.10,Wunderground v.1.15,2013-05-26 09:16:00,
2013-05-26 05:18:00,35.1,34.8,29.81,NNW,346,4.0,11.0,99,0.00,,,0.10,Wunderground v.1.15,2013-05-26 09:18:00,
2013-05-26 05:19:00,35.1,34.8,29.80,SSW,204,2.0,11.0,99,0.00,,,0.10,Wunderground v.1.15,2013-05-26 09:19:00,
2013-05-26 05:21:00,35.1,34.8,29.81,NNW,332,12.0,13.0,99,0.00,,,0.10,Wunderground v.1.15,2013-05-26 09:21:00,
2013-05-26 05:23:00,35.1,34.8,29.81,West,269,7.0,13.0,99,0.00,,,0.11,Wunderground v.1.15,2013-05-26 09:23:00,
2013-05-26 05:24:00,35.1,34.8,29.80,North,360,2.0,13.0,99,0.00,,,0.11,Wunderground v.1.15,2013-05-26 09:24:00,
2013-05-26 05:25:00,35.1,34.8,29.80,NNW,342,4.0,13.0,99,0.00,,,0.11,Wunderground v.1.15,2013-05-26 09:25:00,
2013-05-26 05:26:00,35.1,34.8,29.81,NNW,347,14.0,14.0,99,0.00,,,0.11,Wunderground v.1.15,2013-05-26 09:26:00,
2013-05-26 05:28:00,35.1,34.8,29.80,NNW,338,4.0,15.0,99,0.00,,,0.11,Wunderground v.1.15,2013-05-26 09:28:00,
2013-05-26 05:29:00,35.1,34.8,29.81,NE,42,8.0,15.0,99,0.00,,,0.11,Wunderground v.1.15,2013-05-26 09:29:00,
2013-05-26 05:30:00,35.1,34.8,29.80,NNE,13,9.0,9.0,99,0.00,,,0.11,Wunderground v.1.15,2013-05-26 09:30:00,
2013-05-26 05:31:00,35.1,34.8,29.80,North,360,7.0,11.0,99,0.00,,,0.11,Wunderground v.1.15,2013-05-26 09:31:00,
2013-05-26 05:33:00,35.1,34.8,29.80,West,278,5.0,11.0,99,0.00,,,0.11,Wunderground v.1.15,2013-05-26 09:33:00,
2013-05-26 05:34:00,35.1,34.8,29.80,WSW,246,8.0,11.0,99,0.00,,,0.11,Wunderground v.1.15,2013-05-26 09:34:00,
2013-05-26 05:35:00,35.1,34.8,29.80,South,176,5.0,11.0,99,0.00,,,0.11,Wunderground v.1.15,2013-05-26 09:35:00,
2013-05-26 05:37:00,35.1,34.8,29.80,NW,326,3.0,11.0,99,0.00,,,0.11,Wunderground v.1.15,2013-05-26 09:37:00,
2013-05-26 05:39:00,35.1,34.8,29.81,NNW,338,6.0,18.0,99,0.00,,,0.11,Wunderground v.1.15,2013-05-26 09:39:00,
2013-05-26 05:40:00,35.1,34.8,29.80,NNW,327,3.0,7.0,99,0.00,,,0.11,Wunderground v.1.15,2013-05-26 09:40:00,
2013-05-26 05:41:00,35.1,34.8,29.80,South,181,7.0,12.0,99,0.00,,,0.11,Wunderground v.1.15,2013-05-26 09:41:00,
2013-05-26 05:42:00,35.1,34.8,29.81,SE,143,2.0,16.0,99,0.00,,,0.11,Wunderground v.1.15,2013-05-26 09:42:00,
2013-05-26 05:45:00,35.1,34.8,29.81,NNW,344,3.0,16.0,99,0.00,,,0.11,Wunderground v.1.15,2013-05-26 09:45:00,
2013-05-26 05:46:00,35.1,34.8,29.81,NNW,342,2.0,16.0,99,0.00,,,0.11,Wunderground v.1.15,2013-05-26 09:46:00,
2013-05-26 05:47:00,35.1,34.8,29.80,WSW,243,3.0,16.0,99,0.00,,,0.11,Wunderground v.1.15,2013-05-26 09:47:00,
2013-05-26 05:50:00,35.1,34.8,29.81,ENE,74,3.0,6.0,99,0.00,,,0.12,Wunderground v.1.15,2013-05-26 09:50:00,
2013-05-26 05:51:00,35.1,34.8,29.81,NNW,347,3.0,6.0,99,0.00,,,0.12,Wunderground v.1.15,2013-05-26 09:51:00,
2013-05-26 05:53:00,35.1,34.8,29.81,NW,314,4.0,6.0,99,0.00,,,0.12,Wunderground v.1.15,2013-05-26 09:53:00,
2013-05-26 05:55:00,35.1,34.8,29.81,WSW,258,6.0,8.0,99,0.00,,,0.12,Wunderground v.1.15,2013-05-26 09:55:00,
2013-05-26 05:56:00,35.1,34.8,29.81,NNW,346,3.0,8.0,99,0.00,,,0.12,Wunderground v.1.15,2013-05-26 09:56:00,
2013-05-26 05:58:00,35.2,34.9,29.81,SW,217,6.0,15.0,99,0.00,,,0.12,Wunderground v.1.15,2013-05-26 09:58:00,
2013-05-26 06:00:00,35.2,34.9,29.81,NW,309,8.0,9.0,99,0.00,,,0.12,Wunderground v.1.15,2013-05-26 10:00:00,
2013-05-26 06:01:00,35.2,34.9,29.82,WNW,296,1.0,9.0,99,0.00,,,0.12,Wunderground v.1.15,2013-05-26 10:01:00,
2013-05-26 06:02:00,35.2,34.9,29.81,SW,225,6.0,11.0,99,0.00,,,0.12,Wunderground v.1.15,2013-05-26 10:02:00,
2013-05-26 06:03:00,35.2,34.9,29.81,WSW,242,5.0,11.0,99,0.00,,,0.12,Wunderground v.1.15,2013-05-26 10:03:00,
2013-05-26 06:05:00,35.2,34.9,29.81,ESE,121,2.0,11.0,99,0.00,,,0.12,Wunderground v.1.15,2013-05-26 10:05:00,
2013-05-26 06:06:00,35.2,34.9,29.81,West,261,4.0,11.0,99,0.00,,,0.12,Wunderground v.1.15,2013-05-26 10:06:00,
2013-05-26 06:07:00,35.2,34.9,29.81,West,270,11.0,17.0,99,0.00,,,0.12,Wunderground v.1.15,2013-05-26 10:07:00,
2013-05-26 06:08:00,35.3,35.0,29.81,West,267,2.0,17.0,99,0.00,,,0.12,Wunderground v.1.15,2013-05-26 10:08:00,
2013-05-26 06:10:00,35.3,35.0,29.82,WNW,294,8.0,18.0,99,0.00,,,0.12,Wunderground v.1.15,2013-05-26 10:10:00,
2013-05-26 06:11:00,35.3,35.0,29.82,SSE,148,5.0,18.0,99,0.00,,,0.12,Wunderground v.1.15,2013-05-26 10:11:00,
2013-05-26 06:12:00,35.3,35.0,29.82,North,11,4.0,18.0,99,0.00,,,0.12,Wunderground v.1.15,2013-05-26 10:12:00,
2013-05-26 06:13:00,35.3,35.0,29.82,WSW,255,5.0,18.0,99,0.00,,,0.13,Wunderground v.1.15,2013-05-26 10:13:00,
2013-05-26 06:15:00,35.3,35.0,29.82,North,355,2.0,18.0,99,0.00,,,0.13,Wunderground v.1.15,2013-05-26 10:15:00,
2013-05-26 06:16:00,35.3,35.0,29.81,WNW,296,9.0,18.0,99,0.00,,,0.13,Wunderground v.1.15,2013-05-26 10:16:00,
2013-05-26 06:17:00,35.3,35.0,29.82,SE,142,2.0,18.0,99,0.00,,,0.13,Wunderground v.1.15,2013-05-26 10:17:00,
2013-05-26 06:18:00,35.3,35.0,29.82,NNW,344,7.0,18.0,99,0.00,,,0.13,Wunderground v.1.15,2013-05-26 10:18:00,
2013-05-26 06:20:00,35.3,35.0,29.82,WNW,292,0.0,4.0,99,0.00,,,0.13,Wunderground v.1.15,2013-05-26 10:20:00,
2013-05-26 06:21:00,35.4,35.1,29.82,NNW,337,8.0,10.0,99,0.00,,,0.13,Wunderground v.1.15,2013-05-26 10:21:00,
2013-05-26 06:22:00,35.4,35.1,29.82,North,349,15.0,15.0,99,0.00,,,0.13,Wunderground v.1.15,2013-05-26 10:22:00,
2013-05-26 06:24:00,35.4,35.1,29.82,West,265,9.0,18.0,99,0.00,,,0.13,Wunderground v.1.15,2013-05-26 10:24:00,
2013-05-26 06:26:00,35.4,35.1,29.83,North,360,16.0,18.0,99,0.00,,,0.13,Wunderground v.1.15,2013-05-26 10:26:00,
2013-05-26 06:27:00,35.5,35.2,29.82,West,267,10.0,18.0,99,0.00,,,0.13,Wunderground v.1.15,2013-05-26 10:27:00,
2013-05-26 06:29:00,35.5,35.2,29.82,West,273,8.0,18.0,99,0.00,,,0.13,Wunderground v.1.15,2013-05-26 10:29:00,
2013-05-26 06:31:00,35.5,35.2,29.82,NNW,341,8.0,8.0,99,0.00,,,0.13,Wunderground v.1.15,2013-05-26 10:31:00,
2013-05-26 06:32:00,35.5,35.2,29.83,NW,321,3.0,9.0,99,0.00,,,0.13,Wunderground v.1.15,2013-05-26 10:32:00,
2013-05-26 06:33:00,35.5,35.2,29.82,South,186,7.0,9.0,99,0.00,,,0.13,Wunderground v.1.15,2013-05-26 10:33:00,
2013-05-26 06:34:00,35.5,35.2,29.83,SW,234,5.0,9.0,99,0.00,,,0.13,Wunderground v.1.15,2013-05-26 10:34:00,
2013-05-26 06:36:00,35.5,35.2,29.83,West,280,5.0,13.0,99,0.00,,,0.13,Wunderground v.1.15,2013-05-26 10:36:00,
2013-05-26 06:37:00,35.5,35.2,29.83,NW,306,2.0,13.0,99,0.00,,,0.13,Wunderground v.1.15,2013-05-26 10:37:00,
2013-05-26 06:38:00,35.5,35.2,29.83,NNW,344,0.0,13.0,99,0.00,,,0.13,Wunderground v.1.15,2013-05-26 10:38:00,
2013-05-26 06:39:00,35.5,35.2,29.83,SSE,149,4.0,13.0,99,0.00,,,0.13,Wunderground v.1.15,2013-05-26 10:39:00,
2013-05-26 06:41:00,35.5,35.2,29.83,NE,38,0.0,8.0,99,0.00,,,0.14,Wunderground v.1.15,2013-05-26 10:41:00,
2013-05-26 06:42:00,35.6,35.3,29.83,West,279,0.0,8.0,99,0.00,,,0.14,Wunderground v.1.15,2013-05-26 10:42:00,
2013-05-26 06:43:00,35.6,35.3,29.83,WNW,296,3.0,8.0,99,0.00,,,0.14,Wunderground v.1.15,2013-05-26 10:43:00,
2013-05-26 06:44:00,35.6,35.3,29.83,SW,225,2.0,10.0,99,0.00,,,0.14,Wunderground v.1.15,2013-05-26 10:44:00,
2013-05-26 06:46:00,35.6,35.3,29.83,NW,311,2.0,16.0,99,0.00,,,0.14,Wunderground v.1.15,2013-05-26 10:46:00,
2013-05-26 06:48:00,35.6,35.3,29.83,NNW,329,3.0,16.0,99,0.00,,,0.14,Wunderground v.1.15,2013-05-26 10:48:00,
2013-05-26 06:49:00,35.7,35.4,29.83,NW,306,3.0,16.0,99,0.00,,,0.14,Wunderground v.1.15,2013-05-26 10:49:00,
2013-05-26 06:51:00,35.7,35.4,29.83,SSE,160,4.0,7.0,99,0.00,,,0.14,Wunderground v.1.15,2013-05-26 10:51:00,
2013-05-26 06:53:00,35.7,35.4,29.83,South,185,2.0,8.0,99,0.00,,,0.14,Wunderground v.1.15,2013-05-26 10:53:00,
2013-05-26 06:54:00,35.7,35.4,29.83,SE,135,0.0,8.0,99,0.00,,,0.14,Wunderground v.1.15,2013-05-26 10:54:00,
2013-05-26 06:57:00,35.8,35.5,29.83,WNW,301,1.0,12.0,99,0.00,,,0.14,Wunderground v.1.15,2013-05-26 10:57:00,
2013-05-26 06:58:00,35.7,35.4,29.83,NW,326,7.0,12.0,99,0.00,,,0.14,Wunderground v.1.15,2013-05-26 10:58:00,
2013-05-26 06:59:00,35.7,35.4,29.83,NE,34,5.0,13.0,99,0.00,,,0.14,Wunderground v.1.15,2013-05-26 10:59:00,
2013-05-26 07:00:00,35.7,35.4,29.83,WNW,288,7.0,8.0,99,0.00,,,0.14,Wunderground v.1.15,2013-05-26 11:00:00,
2013-05-26 07:02:00,35.7,35.4,29.83,NE,49,1.0,8.0,99,0.00,,,0.14,Wunderground v.1.15,2013-05-26 11:02:00,
2013-05-26 07:03:00,35.8,35.5,29.83,North,355,1.0,8.0,99,0.00,,,0.14,Wunderground v.1.15,2013-05-26 11:03:00,
2013-05-26 07:04:00,35.8,35.5,29.83,North,5,5.0,8.0,99,0.00,,,0.14,Wunderground v.1.15,2013-05-26 11:04:00,
2013-05-26 07:05:00,35.8,35.5,29.83,NNE,33,1.0,8.0,99,0.00,,,0.14,Wunderground v.1.15,2013-05-26 11:05:00,
2013-05-26 07:07:00,35.9,35.6,29.83,WSW,249,12.0,12.0,99,0.00,,,0.15,Wunderground v.1.15,2013-05-26 11:07:00,
2013-05-26 07:09:00,35.9,35.6,29.83,NW,309,3.0,12.0,99,0.00,,,0.15,Wunderground v.1.15,2013-05-26 11:09:00,
2013-05-26 07:10:00,35.9,35.6,29.83,NNW,341,3.0,3.0,99,0.00,,,0.15,Wunderground v.1.15,2013-05-26 11:10:00,
2013-05-26 07:12:00,35.9,35.6,29.83,West,263,11.0,17.0,99,0.00,,,0.15,Wunderground v.1.15,2013-05-26 11:12:00,
2013-05-26 07:14:00,35.9,35.6,29.84,NNW,341,2.0,17.0,99,0.00,,,0.15,Wunderground v.1.15,2013-05-26 11:14:00,
2013-05-26 07:15:00,35.9,35.6,29.83,NW,325,5.0,20.0,99,0.00,,,0.15,Wunderground v.1.15,2013-05-26 11:15:00,
2013-05-26 07:16:00,35.9,35.6,29.84,NNW,348,5.0,20.0,99,0.00,,,0.15,Wunderground v.1.15,2013-05-26 11:16:00,
2013-05-26 07:17:00,35.9,35.6,29.83,NNE,33,4.0,20.0,99,0.00,,,0.15,Wunderground v.1.15,2013-05-26 11:17:00,
2013-05-26 07:19:00,35.9,35.6,29.83,NW,309,8.0,20.0,99,0.00,,,0.15,Wunderground v.1.15,2013-05-26 11:19:00,
2013-05-26 07:20:00,35.9,35.6,29.83,SW,230,2.0,5.0,99,0.00,,,0.15,Wunderground v.1.15,2013-05-26 11:20:00,
2013-05-26 07:21:00,35.9,35.6,29.83,West,266,7.0,7.0,99,0.00,,,0.15,Wunderground v.1.15,2013-05-26 11:21:00,
2013-05-26 07:22:00,36.0,35.7,29.84,NNE,30,7.0,13.0,99,0.00,,,0.15,Wunderground v.1.15,2013-05-26 11:22:00,
2013-05-26 07:24:00,36.0,35.7,29.83,WSW,251,4.0,13.0,99,0.00,,,0.15,Wunderground v.1.15,2013-05-26 11:24:00,
2013-05-26 07:25:00,36.0,35.7,29.83,NW,314,9.0,13.0,99,0.00,,,0.15,Wunderground v.1.15,2013-05-26 11:25:00,
2013-05-26 07:26:00,36.0,35.7,29.83,NW,315,8.0,13.0,99,0.00,,,0.15,Wunderground v.1.15,2013-05-26 11:26:00,
2013-05-26 07:27:00,36.0,35.7,29.83,NNE,21,11.0,17.0,99,0.00,,,0.15,Wunderground v.1.15,2013-05-26 11:27:00,
2013-05-26 07:29:00,36.0,35.7,29.84,NNE,16,7.0,17.0,99,0.00,,,0.15,Wunderground v.1.15,2013-05-26 11:29:00,
2013-05-26 07:30:00,36.0,35.5,29.84,North,360,6.0,8.0,98,0.00,,,0.15,Wunderground v.1.15,2013-05-26 11:30:00,
2013-05-26 07:32:00,36.1,35.6,29.84,West,271,5.0,15.0,98,0.00,,,0.15,Wunderground v.1.15,2013-05-26 11:32:00,
2013-05-26 07:36:00,36.2,35.7,29.84,WNW,290,7.0,15.0,98,0.00,,,0.15,Wunderground v.1.15,2013-05-26 11:36:00,
2013-05-26 07:37:00,36.2,35.7,29.84,SW,217,8.0,15.0,98,0.00,,,0.16,Wunderground v.1.15,2013-05-26 11:37:00,
2013-05-26 07:38:00,36.2,35.7,29.84,WNW,298,2.0,15.0,98,0.00,,,0.16,Wunderground v.1.15,2013-05-26 11:38:00,
2013-05-26 07:41:00,36.2,35.7,29.84,WSW,247,9.0,20.0,98,0.00,,,0.16,Wunderground v.1.15,2013-05-26 11:41:00,
2013-05-26 07:43:00,36.2,35.7,29.84,SE,130,6.0,20.0,98,0.00,,,0.16,Wunderground v.1.15,2013-05-26 11:43:00,
2013-05-26 07:46:00,36.2,35.7,29.85,NW,309,12.0,20.0,98,0.00,,,0.16,Wunderground v.1.15,2013-05-26 11:46:00,
2013-05-26 07:48:00,36.3,35.8,29.84,SW,216,3.0,20.0,98,0.00,,,0.16,Wunderground v.1.15,2013-05-26 11:48:00,
2013-05-26 07:49:00,36.3,35.8,29.84,SW,216,3.0,20.0,98,0.00,,,0.16,Wunderground v.1.15,2013-05-26 11:49:00,
2013-05-26 07:51:00,36.4,35.9,29.84,WSW,253,7.0,13.0,98,0.00,,,0.16,Wunderground v.1.15,2013-05-26 11:51:00,
2013-05-26 07:53:00,36.5,36.0,29.84,North,355,3.0,13.0,98,0.00,,,0.16,Wunderground v.1.15,2013-05-26 11:53:00,
2013-05-26 07:54:00,36.5,36.0,29.84,NNW,342,2.0,13.0,98,0.00,,,0.16,Wunderground v.1.15,2013-05-26 11:54:00,
2013-05-26 07:56:00,36.5,36.0,29.84,West,259,2.0,13.0,98,0.00,,,0.16,Wunderground v.1.15,2013-05-26 11:56:00,
2013-05-26 07:58:00,36.5,36.0,29.84,South,177,6.0,20.0,98,0.00,,,0.16,Wunderground v.1.15,2013-05-26 11:58:00,
2013-05-26 07:59:00,36.5,36.0,29.85,North,5,6.0,20.0,98,0.00,,,0.16,Wunderground v.1.15,2013-05-26 11:59:00,
2013-05-26 08:01:00,36.5,36.0,29.85,ESE,111,4.0,14.0,98,0.00,,,0.16,Wunderground v.1.15,2013-05-26 12:01:00,
2013-05-26 08:03:00,36.5,36.0,29.85,ESE,119,1.0,14.0,98,0.00,,,0.16,Wunderground v.1.15,2013-05-26 12:03:00,
2013-05-26 08:04:00,36.4,35.9,29.85,West,275,1.0,14.0,98,0.00,,,0.16,Wunderground v.1.15,2013-05-26 12:04:00,
2013-05-26 08:07:00,36.4,35.9,29.85,SW,233,2.0,14.0,98,0.00,,,0.16,Wunderground v.1.15,2013-05-26 12:07:00,
2013-05-26 08:09:00,36.4,35.9,29.85,WNW,289,8.0,14.0,98,0.00,,,0.16,Wunderground v.1.15,2013-05-26 12:09:00,
2013-05-26 08:12:00,36.5,36.0,29.85,North,355,2.0,12.0,98,0.00,,,0.17,Wunderground v.1.15,2013-05-26 12:12:00,
2013-05-26 08:14:00,36.6,36.1,29.85,West,277,2.0,12.0,98,0.00,,,0.17,Wunderground v.1.15,2013-05-26 12:14:00,
2013-05-26 08:15:00,36.6,36.1,29.85,WNW,297,7.0,12.0,98,0.00,,,0.17,Wunderground v.1.15,2013-05-26 12:15:00,
2013-05-26 08:17:00,36.6,36.1,29.85,WNW,283,1.0,12.0,98,0.00,,,0.17,Wunderground v.1.15,2013-05-26 12:17:00,
2013-05-26 08:19:00,36.6,36.1,29.85,WSW,240,2.0,15.0,98,0.00,,,0.17,Wunderground v.1.15,2013-05-26 12:19:00,
2013-05-26 08:20:00,36.6,36.1,29.85,WSW,246,4.0,6.0,98,0.00,,,0.17,Wunderground v.1.15,2013-05-26 12:20:00,
2013-05-26 08:23:00,36.7,36.2,29.85,NW,321,7.0,12.0,98,0.00,,,0.17,Wunderground v.1.15,2013-05-26 12:23:00,
2013-05-26 08:25:00,36.8,36.3,29.85,West,267,10.0,16.0,98,0.00,,,0.17,Wunderground v.1.15,2013-05-26 12:25:00,
2013-05-26 08:28:00,36.8,36.3,29.85,WSW,252,4.0,16.0,98,0.00,,,0.17,Wunderground v.1.15,2013-05-26 12:28:00,
2013-05-26 08:30:00,36.8,36.3,29.85,West,269,10.0,10.0,98,0.00,,,0.17,Wunderground v.1.15,2013-05-26 12:30:00,
2013-05-26 08:33:00,37.0,36.7,29.85,SE,126,4.0,10.0,99,0.00,,,0.17,Wunderground v.1.15,2013-05-26 12:33:00,
2013-05-26 08:35:00,37.1,36.8,29.86,North,360,2.0,10.0,99,0.00,,,0.17,Wunderground v.1.15,2013-05-26 12:35:00,
2013-05-26 08:36:00,37.1,36.8,29.86,WSW,252,8.0,13.0,99,0.00,,,0.17,Wunderground v.1.15,2013-05-26 12:36:00,
2013-05-26 08:39:00,37.1,36.6,29.86,ENE,69,7.0,15.0,98,0.00,,,0.18,Wunderground v.1.15,2013-05-26 12:39:00,
2013-05-26 08:40:00,37.1,36.6,29.86,SSW,200,4.0,10.0,98,0.00,,,0.18,Wunderground v.1.15,2013-05-26 12:40:00,
2013-05-26 08:41:00,37.2,36.7,29.86,SW,224,4.0,12.0,98,0.00,,,0.18,Wunderground v.1.15,2013-05-26 12:41:00,
2013-05-26 08:45:00,37.2,36.7,29.86,SSW,211,2.0,16.0,98,0.00,,,0.18,Wunderground v.1.15,2013-05-26 12:45:00,
2013-05-26 08:46:00,37.2,36.7,29.86,SSE,164,5.0,16.0,98,0.00,,,0.18,Wunderground v.1.15,2013-05-26 12:46:00,
2013-05-26 08:50:00,37.3,36.8,29.86,WSW,242,14.0,14.0,98,0.00,,,0.18,Wunderground v.1.15,2013-05-26 12:50:00,
2013-05-26 08:51:00,37.3,36.8,29.86,WSW,242,14.0,14.0,98,0.00,,,0.18,Wunderground v.1.15,2013-05-26 12:51:00,
2013-05-26 08:52:00,37.4,36.9,29.86,SW,225,5.0,14.0,98,0.00,,,0.18,Wunderground v.1.15,2013-05-26 12:52:00,
2013-05-26 08:56:00,37.4,36.9,29.86,NW,304,6.0,17.0,98,0.00,,,0.18,Wunderground v.1.15,2013-05-26 12:56:00,
2013-05-26 08:57:00,37.4,36.9,29.87,WNW,282,4.0,17.0,98,0.00,,,0.18,Wunderground v.1.15,2013-05-26 12:57:00,
2013-05-26 09:01:00,37.7,37.2,29.87,WSW,240,2.0,8.0,98,0.00,,,0.18,Wunderground v.1.15,2013-05-26 13:01:00,
2013-05-26 09:02:00,37.7,37.2,29.87,North,355,4.0,8.0,98,0.00,,,0.18,Wunderground v.1.15,2013-05-26 13:02:00,
2013-05-26 09:06:00,37.6,37.1,29.87,NW,313,2.0,23.0,98,0.00,,,0.19,Wunderground v.1.15,2013-05-26 13:06:00,
2013-05-26 09:07:00,37.7,37.2,29.86,NNE,19,8.0,23.0,98,0.00,,,0.19,Wunderground v.1.15,2013-05-26 13:07:00,
2013-05-26 09:08:00,37.7,37.2,29.87,WNW,302,13.0,23.0,98,0.00,,,0.19,Wunderground v.1.15,2013-05-26 13:08:00,
2013-05-26 09:11:00,38.1,37.6,29.87,SW,234,6.0,11.0,98,0.00,,,0.19,Wunderground v.1.15,2013-05-26 13:11:00,
2013-05-26 09:12:00,38.1,37.6,29.87,WSW,253,3.0,11.0,98,0.00,,,0.19,Wunderground v.1.15,2013-05-26 13:12:00,
2013-05-26 09:13:00,38.0,37.5,29.86,South,180,6.0,11.0,98,0.00,,,0.19,Wunderground v.1.15,2013-05-26 13:13:00,
2013-05-26 09:17:00,37.8,37.3,29.87,NNW,338,8.0,19.0,98,0.00,,,0.19,Wunderground v.1.15,2013-05-26 13:17:00,
2013-05-26 09:18:00,37.8,37.3,29.86,SSW,192,19.0,19.0,98,0.00,,,0.19,Wunderground v.1.15,2013-05-26 13:18:00,
2013-05-26 09:22:00,37.7,36.9,29.86,WSW,254,6.0,16.0,97,0.00,,,0.19,Wunderground v.1.15,2013-05-26 13:22:00,
2013-05-26 09:23:00,37.7,36.9,29.87,NNW,338,12.0,16.0,97,0.00,,,0.19,Wunderground v.1.15,2013-05-26 13:23:00,
2013-05-26 09:27:00,37.8,37.3,29.87,WNW,292,5.0,18.0,98,0.00,,,0.19,Wunderground v.1.15,2013-05-26 13:27:00,
2013-05-26 09:28:00,37.8,37.3,29.87,NNE,21,7.0,18.0,98,0.00,,,0.19,Wunderground v.1.15,2013-05-26 13:28:00,
2013-05-26 09:33:00,37.9,37.4,29.86,West,275,10.0,13.0,98,0.00,,,0.19,Wunderground v.1.15,2013-05-26 13:33:00,
2013-05-26 09:38:00,37.8,37.3,29.87,NE,40,7.0,18.0,98,0.00,,,0.20,Wunderground v.1.15,2013-05-26 13:38:00,
2013-05-26 09:39:00,37.9,37.4,29.88,SW,236,1.0,18.0,98,0.00,,,0.20,Wunderground v.1.15,2013-05-26 13:39:00,
2013-05-26 09:43:00,37.6,36.8,29.88,WSW,252,4.0,23.0,97,0.00,,,0.20,Wunderground v.1.15,2013-05-26 13:43:00,
2013-05-26 09:44:00,37.6,36.8,29.87,WSW,255,6.0,23.0,97,0.00,,,0.20,Wunderground v.1.15,2013-05-26 13:44:00,
2013-05-26 09:48:00,38.2,37.7,29.87,WSW,238,3.0,23.0,98,0.00,,,0.20,Wunderground v.1.15,2013-05-26 13:48:00,
2013-05-26 09:49:00,38.3,37.8,29.88,WNW,284,17.0,23.0,98,0.00,,,0.20,Wunderground v.1.15,2013-05-26 13:49:00,
2013-05-26 09:53:00,38.2,37.7,29.87,SW,217,9.0,13.0,98,0.00,,,0.20,Wunderground v.1.15,2013-05-26 13:53:00,
2013-05-26 09:54:00,38.2,37.7,29.87,West,267,8.0,17.0,98,0.00,,,0.20,Wunderground v.1.15,2013-05-26 13:54:00,
2013-05-26 09:55:00,38.1,37.3,29.88,WNW,300,4.0,17.0,97,0.00,,,0.20,Wunderground v.1.15,2013-05-26 13:55:00,
2013-05-26 09:58:00,38.5,38.0,29.87,WSW,254,3.0,17.0,98,0.00,,,0.20,Wunderground v.1.15,2013-05-26 13:58:00,
2013-05-26 10:00:00,38.5,38.0,29.87,WSW,250,5.0,7.0,98,0.00,,,0.20,Wunderground v.1.15,2013-05-26 14:00:00,
2013-05-26 10:04:00,38.4,37.6,29.88,WNW,295,11.0,15.0,97,0.00,,,0.20,Wunderground v.1.15,2013-05-26 14:04:00,
2013-05-26 10:05:00,38.4,37.6,29.88,SE,132,1.0,15.0,97,0.00,,,0.20,Wunderground v.1.15,2013-05-26 14:05:00,
2013-05-26 10:06:00,38.4,37.6,29.88,South,180,1.0,15.0,97,0.00,,,0.20,Wunderground v.1.15,2013-05-26 14:06:00,
2013-05-26 10:09:00,38.7,37.9,29.88,West,273,5.0,15.0,97,0.00,,,0.21,Wunderground v.1.15,2013-05-26 14:09:00,
2013-05-26 10:10:00,38.7,37.9,29.87,WSW,257,6.0,6.0,97,0.00,,,0.21,Wunderground v.1.15,2013-05-26 14:10:00,
2013-05-26 10:11:00,38.6,37.8,29.87,WNW,288,7.0,8.0,97,0.00,,,0.21,Wunderground v.1.15,2013-05-26 14:11:00,
2013-05-26 10:12:00,38.6,37.8,29.88,ESE,121,7.0,16.0,97,0.00,,,0.21,Wunderground v.1.15,2013-05-26 14:12:00,
2013-05-26 10:14:00,38.7,37.9,29.88,NNW,339,12.0,16.0,97,0.00,,,0.21,Wunderground v.1.15,2013-05-26 14:14:00,
2013-05-26 10:15:00,38.6,37.8,29.88,SSW,193,10.0,16.0,97,0.00,,,0.21,Wunderground v.1.15,2013-05-26 14:15:00,
2013-05-26 10:16:00,38.5,37.5,29.88,WNW,302,7.0,23.0,96,0.00,,,0.21,Wunderground v.1.15,2013-05-26 14:16:00,
2013-05-26 10:17:00,38.5,37.5,29.88,West,259,9.0,23.0,96,0.00,,,0.21,Wunderground v.1.15,2013-05-26 14:17:00,
2013-05-26 10:20:00,38.5,37.5,29.89,WSW,239,9.0,9.0,96,0.00,,,0.21,Wunderground v.1.15,2013-05-26 14:20:00,
2013-05-26 10:21:00,38.4,37.4,29.88,West,262,3.0,12.0,96,0.00,,,0.21,Wunderground v.1.15,2013-05-26 14:21:00,
2013-05-26 10:22:00,38.4,37.4,29.88,SE,134,6.0,15.0,96,0.00,,,0.21,Wunderground v.1.15,2013-05-26 14:22:00,
2013-05-26 10:25:00,38.2,37.2,29.89,WSW,249,7.0,21.0,96,0.00,,,0.21,Wunderground v.1.15,2013-05-26 14:25:00,
2013-05-26 10:26:00,38.1,37.1,29.89,NNE,13,5.0,21.0,96,0.00,,,0.21,Wunderground v.1.15,2013-05-26 14:26:00,
2013-05-26 10:27:00,38.0,37.0,29.89,West,278,8.0,21.0,96,0.00,,,0.21,Wunderground v.1.15,2013-05-26 14:27:00,
2013-05-26 10:30:00,38.0,37.0,29.88,WSW,244,5.0,7.0,96,0.00,,,0.21,Wunderground v.1.15,2013-05-26 14:30:00,
2013-05-26 10:31:00,38.0,37.0,29.88,NNW,335,11.0,11.0,96,0.00,,,0.21,Wunderground v.1.15,2013-05-26 14:31:00,
2013-05-26 10:32:00,38.0,37.0,29.88,WNW,286,4.0,11.0,96,0.00,,,0.21,Wunderground v.1.15,2013-05-26 14:32:00,
2013-05-26 10:35:00,37.9,36.9,29.88,WSW,252,5.0,21.0,96,0.00,,,0.22,Wunderground v.1.15,2013-05-26 14:35:00,
2013-05-26 10:36:00,38.0,37.0,29.89,North,360,17.0,21.0,96,0.00,,,0.22,Wunderground v.1.15,2013-05-26 14:36:00,
2013-05-26 10:37:00,37.9,36.9,29.88,NE,36,4.0,21.0,96,0.00,,,0.22,Wunderground v.1.15,2013-05-26 14:37:00,
2013-05-26 10:41:00,38.0,37.0,29.88,West,275,6.0,13.0,96,0.00,,,0.22,Wunderground v.1.15,2013-05-26 14:41:00,
2013-05-26 10:42:00,38.1,37.1,29.88,NE,42,6.0,14.0,96,0.00,,,0.22,Wunderground v.1.15,2013-05-26 14:42:00,
2013-05-26 10:43:00,38.1,37.1,29.88,SW,220,11.0,14.0,96,0.00,,,0.22,Wunderground v.1.15,2013-05-26 14:43:00,
2013-05-26 10:46:00,38.0,36.7,29.88,SSE,160,2.0,27.0,95,0.00,,,0.22,Wunderground v.1.15,2013-05-26 14:46:00,
2013-05-26 10:47:00,38.0,36.7,29.88,West,277,6.0,27.0,95,0.00,,,0.22,Wunderground v.1.15,2013-05-26 14:47:00,
2013-05-26 10:48:00,38.1,37.1,29.89,NNW,331,7.0,27.0,96,0.00,,,0.22,Wunderground v.1.15,2013-05-26 14:48:00,
2013-05-26 10:51:00,38.2,36.9,29.88,WNW,287,6.0,10.0,95,0.00,,,0.22,Wunderground v.1.15,2013-05-26 14:51:00,
2013-05-26 10:52:00,38.2,37.2,29.88,WSW,256,12.0,14.0,96,0.00,,,0.22,Wunderground v.1.15,2013-05-26 14:52:00,
2013-05-26 10:54:00,38.3,37.3,29.88,NNW,333,10.0,14.0,96,0.00,,,0.22,Wunderground v.1.15,2013-05-26 14:54:00,
2013-05-26 10:56:00,38.4,37.4,29.88,West,277,19.0,19.0,96,0.00,,,0.22,Wunderground v.1.15,2013-05-26 14:56:00,
2013-05-26 10:57:00,38.4,37.4,29.88,NNW,329,9.0,20.0,96,0.00,,,0.22,Wunderground v.1.15,2013-05-26 14:57:00,
2013-05-26 10:59:00,38.7,37.7,29.88,West,279,14.0,20.0,96,0.00,,,0.22,Wunderground v.1.15,2013-05-26 14:59:00,
2013-05-26 11:02:00,39.5,38.7,29.89,WSW,250,7.0,18.0,97,0.00,,,0.22,Wunderground v.1.15,2013-05-26 15:02:00,
2013-05-26 11:03:00,39.6,38.8,29.88,WSW,254,8.0,20.0,97,0.00,,,0.22,Wunderground v.1.15,2013-05-26 15:03:00,
2013-05-26 11:04:00,39.7,38.7,29.89,NW,325,16.0,20.0,96,0.00,,,0.22,Wunderground v.1.15,2013-05-26 15:04:00,
2013-05-26 11:07:00,40.2,38.9,29.88,West,262,11.0,20.0,95,0.00,,,0.23,Wunderground v.1.15,2013-05-26 15:07:00,
2013-05-26 11:08:00,40.2,38.9,29.89,East,88,15.0,20.0,95,0.00,,,0.23,Wunderground v.1.15,2013-05-26 15:08:00,
2013-05-26 11:09:00,40.2,38.9,29.88,NW,311,9.0,20.0,95,0.00,,,0.23,Wunderground v.1.15,2013-05-26 15:09:00,
2013-05-26 11:13:00,40.4,38.8,29.89,NNW,338,8.0,19.0,94,0.00,,,0.23,Wunderground v.1.15,2013-05-26 15:13:00,
2013-05-26 11:14:00,40.4,38.8,29.88,SSW,211,17.0,19.0,94,0.00,,,0.23,Wunderground v.1.15,2013-05-26 15:14:00,
2013-05-26 11:18:00,40.6,39.0,29.89,WNW,301,8.0,19.0,94,0.00,,,0.23,Wunderground v.1.15,2013-05-26 15:18:00,
2013-05-26 11:19:00,40.7,38.8,29.89,ENE,57,13.0,19.0,93,0.00,,,0.23,Wunderground v.1.15,2013-05-26 15:19:00,
2013-05-26 11:23:00,40.6,38.7,29.89,WNW,302,6.0,22.0,93,0.00,,,0.23,Wunderground v.1.15,2013-05-26 15:23:00,
2013-05-26 11:24:00,40.4,38.5,29.90,SW,231,11.0,22.0,93,0.00,,,0.23,Wunderground v.1.15,2013-05-26 15:24:00,
2013-05-26 11:28:00,40.3,38.7,29.89,NNE,25,4.0,22.0,94,0.00,,,0.23,Wunderground v.1.15,2013-05-26 15:28:00,
2013-05-26 11:29:00,40.3,38.7,29.90,WNW,286,4.0,22.0,94,0.00,,,0.23,Wunderground v.1.15,2013-05-26 15:29:00,
2013-05-26 11:30:00,40.2,38.6,29.90,WNW,295,6.0,8.0,94,0.00,,,0.23,Wunderground v.1.15,2013-05-26 15:30:00,
2013-05-26 11:34:00,40.4,39.1,29.90,SW,215,10.0,17.0,95,0.00,,,0.23,Wunderground v.1.15,2013-05-26 15:34:00,
2013-05-26 11:35:00,40.4,38.8,29.90,NW,318,7.0,17.0,94,0.00,,,0.24,Wunderground v.1.15,2013-05-26 15:35:00,
2013-05-26 11:39:00,40.5,38.9,29.90,NE,49,4.0,17.0,94,0.00,,,0.24,Wunderground v.1.15,2013-05-26 15:39:00,
2013-05-26 11:40:00,40.5,38.9,29.90,NW,306,7.0,17.0,94,0.00,,,0.24,Wunderground v.1.15,2013-05-26 15:40:00,
2013-05-26 11:44:00,40.6,38.7,29.90,NW,317,11.0,15.0,93,0.00,,,0.24,Wunderground v.1.15,2013-05-26 15:44:00,
2013-05-26 11:45:00,40.5,38.6,29.90,NW,311,4.0,15.0,93,0.00,,,0.24,Wunderground v.1.15,2013-05-26 15:45:00,
2013-05-26 11:46:00,40.5,38.6,29.90,NW,317,5.0,15.0,93,0.00,,,0.24,Wunderground v.1.15,2013-05-26 15:46:00,
2013-05-26 11:49:00,40.9,39.6,29.90,NW,304,5.0,15.0,95,0.00,,,0.24,Wunderground v.1.15,2013-05-26 15:49:00,
2013-05-26 11:50:00,41.1,39.8,29.90,NNW,348,8.0,15.0,95,0.00,,,0.24,Wunderground v.1.15,2013-05-26 15:50:00,
2013-05-26 11:51:00,41.3,40.0,29.91,NNE,32,9.0,15.0,95,0.00,,,0.24,Wunderground v.1.15,2013-05-26 15:51:00,
2013-05-26 11:54:00,41.6,40.3,29.90,SW,229,4.0,15.0,95,0.00,,,0.24,Wunderground v.1.15,2013-05-26 15:54:00,
2013-05-26 11:55:00,41.6,40.0,29.91,NW,323,12.0,17.0,94,0.00,,,0.24,Wunderground v.1.15,2013-05-26 15:55:00,
2013-05-26 11:56:00,41.6,39.7,29.91,NNW,330,5.0,17.0,93,0.00,,,0.24,Wunderground v.1.15,2013-05-26 15:56:00,
2013-05-26 11:59:00,41.6,39.2,29.91,SE,137,2.0,22.0,91,0.00,,,0.25,Wunderground v.1.15,2013-05-26 15:59:00,
2013-05-26 12:00:00,41.5,39.1,29.91,WNW,288,11.0,11.0,91,0.00,,,0.25,Wunderground v.1.15,2013-05-26 16:00:00,
2013-05-26 12:01:00,41.5,39.3,29.91,NW,305,6.0,11.0,92,0.00,,,0.25,Wunderground v.1.15,2013-05-26 16:01:00,
2013-05-26 12:05:00,41.2,39.1,29.91,NW,323,2.0,14.0,92,0.00,,,0.25,Wunderground v.1.15,2013-05-26 16:05:00,
2013-05-26 12:06:00,41.1,39.0,29.91,North,360,2.0,14.0,92,0.00,,,0.25,Wunderground v.1.15,2013-05-26 16:06:00,
2013-05-26 12:10:00,41.1,39.2,29.92,WSW,257,5.0,7.0,93,0.00,,,0.25,Wunderground v.1.15,2013-05-26 16:10:00,
2013-05-26 12:11:00,41.2,39.6,29.91,West,261,6.0,11.0,94,0.00,,,0.25,Wunderground v.1.15,2013-05-26 16:11:00,
2013-05-26 12:15:00,41.1,39.2,29.92,SW,227,2.0,16.0,93,0.00,,,0.25,Wunderground v.1.15,2013-05-26 16:15:00,
2013-05-26 12:16:00,41.2,39.6,29.92,SW,234,8.0,16.0,94,0.00,,,0.25,Wunderground v.1.15,2013-05-26 16:16:00,
2013-05-26 12:17:00,41.2,39.3,29.92,WNW,300,4.0,16.0,93,0.00,,,0.25,Wunderground v.1.15,2013-05-26 16:17:00,
2013-05-26 12:20:00,41.4,39.5,29.92,West,261,7.0,10.0,93,0.00,,,0.26,Wunderground v.1.15,2013-05-26 16:20:00,
2013-05-26 12:21:00,41.5,39.3,29.92,WSW,250,1.0,10.0,92,0.00,,,0.26,Wunderground v.1.15,2013-05-26 16:21:00,
2013-05-26 12:22:00,41.6,39.7,29.92,NW,305,3.0,10.0,93,0.00,,,0.26,Wunderground v.1.15,2013-05-26 16:22:00,
2013-05-26 12:23:00,41.8,40.2,29.92,WSW,249,6.0,15.0,94,0.00,,,0.26,Wunderground v.1.15,2013-05-26 16:23:00,
2013-05-26 12:26:00,41.8,39.4,29.92,SSW,205,7.0,15.0,91,0.00,,,0.26,Wunderground v.1.15,2013-05-26 16:26:00,
2013-05-26 12:27:00,41.8,39.1,29.92,North,355,11.0,16.0,90,0.00,,,0.26,Wunderground v.1.15,2013-05-26 16:27:00,
2013-05-26 12:29:00,41.8,39.4,29.92,SW,228,3.0,16.0,91,0.00,,,0.26,Wunderground v.1.15,2013-05-26 16:29:00,
2013-05-26 12:31:00,41.8,39.1,29.92,SW,227,6.0,11.0,90,0.00,,,0.26,Wunderground v.1.15,2013-05-26 16:31:00,
2013-05-26 12:32:00,42.0,39.8,29.92,NNW,341,7.0,17.0,92,0.00,,,0.26,Wunderground v.1.15,2013-05-26 16:32:00,
2013-05-26 12:34:00,41.9,39.5,29.92,SSW,212,9.0,17.0,91,0.00,,,0.26,Wunderground v.1.15,2013-05-26 16:34:00,
2013-05-26 12:36:00,41.8,39.1,29.92,West,267,5.0,17.0,90,0.00,,,0.26,Wunderground v.1.15,2013-05-26 16:36:00,
2013-05-26 12:38:00,41.8,39.1,29.92,East,80,5.0,17.0,90,0.00,,,0.26,Wunderground v.1.15,2013-05-26 16:38:00,
2013-05-26 12:39:00,41.7,39.0,29.92,WNW,285,8.0,17.0,90,0.00,,,0.26,Wunderground v.1.15,2013-05-26 16:39:00,
2013-05-26 12:41:00,41.6,38.6,29.92,SE,144,4.0,14.0,89,0.00,,,0.26,Wunderground v.1.15,2013-05-26 16:41:00,
2013-05-26 12:42:00,41.5,38.8,29.92,North,360,14.0,14.0,90,0.00,,,0.26,Wunderground v.1.15,2013-05-26 16:42:00,
2013-05-26 12:43:00,41.4,38.4,29.92,WSW,255,6.0,18.0,89,0.00,,,0.26,Wunderground v.1.15,2013-05-26 16:43:00,
2013-05-26 12:44:00,41.2,38.5,29.92,North,5,5.0,18.0,90,0.00,,,0.26,Wunderground v.1.15,2013-05-26 16:44:00,
2013-05-26 12:46:00,41.1,38.4,29.92,NNW,328,7.0,18.0,90,0.00,,,0.26,Wunderground v.1.15,2013-05-26 16:46:00,
2013-05-26 12:47:00,41.1,39.0,29.93,WNW,286,6.0,18.0,92,0.00,,,0.26,Wunderground v.1.15,2013-05-26 16:47:00,
2013-05-26 12:48:00,41.2,38.8,29.92,WNW,288,1.0,18.0,91,0.00,,,0.26,Wunderground v.1.15,2013-05-26 16:48:00,
2013-05-26 12:51:00,41.3,38.9,29.92,NNW,333,5.0,10.0,91,0.00,,,0.27,Wunderground v.1.15,2013-05-26 16:51:00,
2013-05-26 12:52:00,41.2,38.8,29.93,NNW,334,2.0,13.0,91,0.00,,,0.27,Wunderground v.1.15,2013-05-26 16:52:00,
2013-05-26 12:53:00,41.2,38.5,29.93,WSW,257,9.0,13.0,90,0.00,,,0.27,Wunderground v.1.15,2013-05-26 16:53:00,
2013-05-26 12:54:00,41.2,38.5,29.93,NE,38,5.0,13.0,90,0.00,,,0.27,Wunderground v.1.15,2013-05-26 16:54:00,
2013-05-26 12:56:00,41.1,38.7,29.93,NNE,24,9.0,13.0,91,0.00,,,0.27,Wunderground v.1.15,2013-05-26 16:56:00,
2013-05-26 12:57:00,41.0,38.6,29.93,SE,134,5.0,13.0,91,0.00,,,0.27,Wunderground v.1.15,2013-05-26 16:57:00,
2013-05-26 12:58:00,41.0,39.7,29.93,WNW,291,6.0,13.0,95,0.00,,,0.27,Wunderground v.1.15,2013-05-26 16:58:00,
2013-05-26 12:59:00,40.8,38.1,29.93,WSW,250,10.0,15.0,90,0.00,,,0.27,Wunderground v.1.15,2013-05-26 16:59:00,
2013-05-26 13:01:00,40.7,38.3,29.93,NNW,347,9.0,12.0,91,0.00,,,0.27,Wunderground v.1.15,2013-05-26 17:01:00,
2013-05-26 13:03:00,40.6,38.5,29.93,West,271,9.0,12.0,92,0.00,,,0.27,Wunderground v.1.15,2013-05-26 17:03:00,
2013-05-26 13:04:00,40.6,38.7,29.93,SSW,212,4.0,12.0,93,0.00,,,0.27,Wunderground v.1.15,2013-05-26 17:04:00,
2013-05-26 13:06:00,40.6,38.7,29.94,West,266,4.0,13.0,93,0.00,,,0.27,Wunderground v.1.15,2013-05-26 17:06:00,
2013-05-26 13:07:00,40.7,38.8,29.94,WSW,246,9.0,13.0,93,0.00,,,0.27,Wunderground v.1.15,2013-05-26 17:07:00,
2013-05-26 13:08:00,40.7,38.8,29.94,WNW,293,2.0,15.0,93,0.00,,,0.27,Wunderground v.1.15,2013-05-26 17:08:00,
2013-05-26 13:09:00,40.6,38.7,29.94,WNW,300,2.0,16.0,93,0.00,,,0.27,Wunderground v.1.15,2013-05-26 17:09:00,
2013-05-26 13:12:00,40.6,38.7,29.94,WNW,303,1.0,11.0,93,0.00,,,0.27,Wunderground v.1.15,2013-05-26 17:12:00,
2013-05-26 13:13:00,40.5,38.9,29.94,SW,235,4.0,11.0,94,0.00,,,0.27,Wunderground v.1.15,2013-05-26 17:13:00,
2013-05-26 13:14:00,40.6,39.0,29.94,WNW,283,11.0,11.0,94,0.00,,,0.27,Wunderground v.1.15,2013-05-26 17:14:00,
2013-05-26 13:17:00,40.5,38.9,29.93,SE,125,8.0,11.0,94,0.00,,,0.27,Wunderground v.1.15,2013-05-26 17:17:00,
2013-05-26 13:18:00,40.4,38.8,29.93,WNW,302,11.0,13.0,94,0.00,,,0.27,Wunderground v.1.15,2013-05-26 17:18:00,
2013-05-26 13:19:00,40.4,38.8,29.94,North,360,5.0,13.0,94,0.00,,,0.27,Wunderground v.1.15,2013-05-26 17:19:00,
2013-05-26 13:20:00,40.4,38.8,29.94,NW,319,4.0,9.0,94,0.00,,,0.27,Wunderground v.1.15,2013-05-26 17:20:00,
2013-05-26 13:22:00,40.4,38.8,29.93,NW,314,4.0,11.0,94,0.00,,,0.27,Wunderground v.1.15,2013-05-26 17:22:00,
2013-05-26 13:23:00,40.5,38.9,29.94,NNW,330,5.0,11.0,94,0.00,,,0.27,Wunderground v.1.15,2013-05-26 17:23:00,
2013-05-26 13:24:00,40.5,38.9,29.94,NW,311,0.0,11.0,94,0.00,,,0.27,Wunderground v.1.15,2013-05-26 17:24:00,
2013-05-26 13:25:00,40.6,39.3,29.93,SSE,151,1.0,15.0,95,0.00,,,0.28,Wunderground v.1.15,2013-05-26 17:25:00,
2013-05-26 13:28:00,40.7,39.4,29.94,SW,235,3.0,15.0,95,0.00,,,0.28,Wunderground v.1.15,2013-05-26 17:28:00,
2013-05-26 13:29:00,40.6,39.0,29.94,SW,217,7.0,15.0,94,0.00,,,0.28,Wunderground v.1.15,2013-05-26 17:29:00,
2013-05-26 13:31:00,40.5,38.9,29.94,WSW,250,4.0,13.0,94,0.00,,,0.28,Wunderground v.1.15,2013-05-26 17:31:00,
2013-05-26 13:33:00,40.6,39.0,29.94,NNE,30,6.0,15.0,94,0.00,,,0.28,Wunderground v.1.15,2013-05-26 17:33:00,
2013-05-26 13:34:00,40.6,39.0,29.94,South,182,1.0,15.0,94,0.00,,,0.28,Wunderground v.1.15,2013-05-26 17:34:00,
2013-05-26 13:35:00,40.6,39.0,29.94,WNW,294,3.0,15.0,94,0.00,,,0.28,Wunderground v.1.15,2013-05-26 17:35:00,
2013-05-26 13:36:00,40.7,39.1,29.94,South,182,8.0,15.0,94,0.00,,,0.28,Wunderground v.1.15,2013-05-26 17:36:00,
2013-05-26 13:38:00,40.9,39.3,29.94,WNW,290,1.0,15.0,94,0.00,,,0.28,Wunderground v.1.15,2013-05-26 17:38:00,
2013-05-26 13:39:00,41.0,39.4,29.94,East,91,2.0,15.0,94,0.00,,,0.28,Wunderground v.1.15,2013-05-26 17:39:00,
2013-05-26 13:40:00,41.1,39.5,29.94,SSW,192,4.0,8.0,94,0.00,,,0.28,Wunderground v.1.15,2013-05-26 17:40:00,
2013-05-26 13:41:00,41.3,39.7,29.94,SSW,209,11.0,17.0,94,0.00,,,0.28,Wunderground v.1.15,2013-05-26 17:41:00,
2013-05-26 13:43:00,41.3,39.2,29.95,NW,320,6.0,17.0,92,0.00,,,0.28,Wunderground v.1.15,2013-05-26 17:43:00,
2013-05-26 13:44:00,41.3,39.2,29.94,West,271,2.0,17.0,92,0.00,,,0.28,Wunderground v.1.15,2013-05-26 17:44:00,
2013-05-26 13:45:00,41.3,39.2,29.94,West,265,17.0,19.0,92,0.00,,,0.28,Wunderground v.1.15,2013-05-26 17:45:00,
2013-05-26 13:47:00,41.3,39.2,29.94,North,11,9.0,19.0,92,0.00,,,0.28,Wunderground v.1.15,2013-05-26 17:47:00,
2013-05-26 13:49:00,41.5,39.6,29.96,NE,39,7.0,19.0,93,0.00,,,0.28,Wunderground v.1.15,2013-05-26 17:49:00,
2013-05-26 13:50:00,41.6,39.7,29.94,WNW,290,4.0,7.0,93,0.00,,,0.28,Wunderground v.1.15,2013-05-26 17:50:00,
2013-05-26 13:52:00,41.8,39.6,29.94,West,276,4.0,12.0,92,0.00,,,0.28,Wunderground v.1.15,2013-05-26 17:52:00,
2013-05-26 13:54:00,42.1,39.9,29.95,NW,320,5.0,12.0,92,0.00,,,0.28,Wunderground v.1.15,2013-05-26 17:54:00,
2013-05-26 13:55:00,42.4,40.0,29.94,WNW,292,13.0,15.0,91,0.00,,,0.28,Wunderground v.1.15,2013-05-26 17:55:00,
2013-05-26 13:57:00,42.7,40.3,29.95,NW,307,5.0,16.0,91,0.00,,,0.28,Wunderground v.1.15,2013-05-26 17:57:00,
2013-05-26 13:59:00,42.7,39.7,29.95,North,355,6.0,16.0,89,0.00,,,0.28,Wunderground v.1.15,2013-05-26 17:59:00,
2013-05-26 14:00:00,42.7,39.7,29.95,SSE,157,8.0,11.0,89,0.00,,,0.28,Wunderground v.1.15,2013-05-26 18:00:00,
2013-05-26 14:01:00,42.7,39.7,29.95,NNW,329,5.0,11.0,89,0.00,,,0.28,Wunderground v.1.15,2013-05-26 18:01:00,
2013-05-26 14:02:00,42.6,39.6,29.96,West,277,9.0,11.0,89,0.00,,,0.28,Wunderground v.1.15,2013-05-26 18:02:00,
2013-05-26 14:04:00,42.4,39.4,29.96,NNW,343,10.0,13.0,89,0.00,,,0.29,Wunderground v.1.15,2013-05-26 18:04:00,
2013-05-26 14:06:00,42.3,39.3,29.96,WNW,298,2.0,15.0,89,0.00,,,0.29,Wunderground v.1.15,2013-05-26 18:06:00,
2013-05-26 14:08:00,42.2,39.2,29.96,WNW,287,7.0,15.0,89,0.00,,,0.29,Wunderground v.1.15,2013-05-26 18:08:00,
2013-05-26 14:09:00,42.2,39.2,29.96,West,281,5.0,16.0,89,0.00,,,0.29,Wunderground v.1.15,2013-05-26 18:09:00,
2013-05-26 14:10:00,42.1,38.8,29.96,NNW,338,6.0,6.0,88,0.00,,,0.29,Wunderground v.1.15,2013-05-26 18:10:00,
2013-05-26 14:11:00,42.0,38.7,29.96,WNW,302,5.0,15.0,88,0.00,,,0.29,Wunderground v.1.15,2013-05-26 18:11:00,
2013-05-26 14:12:00,41.9,38.6,29.96,WSW,248,12.0,15.0,88,0.00,,,0.29,Wunderground v.1.15,2013-05-26 18:12:00,
2013-05-26 14:13:00,41.9,38.9,29.96,West,278,8.0,16.0,89,0.00,,,0.29,Wunderground v.1.15,2013-05-26 18:13:00,
2013-05-26 14:14:00,41.8,38.8,29.96,West,260,6.0,16.0,89,0.00,,,0.29,Wunderground v.1.15,2013-05-26 18:14:00,
2013-05-26 14:15:00,41.8,38.8,29.96,NNW,328,6.0,16.0,89,0.00,,,0.29,Wunderground v.1.15,2013-05-26 18:15:00,
2013-05-26 14:16:00,41.8,38.8,29.96,ENE,59,3.0,16.0,89,0.00,,,0.29,Wunderground v.1.15,2013-05-26 18:16:00,
2013-05-26 14:17:00,41.8,39.1,29.96,SW,217,6.0,16.0,90,0.00,,,0.29,Wunderground v.1.15,2013-05-26 18:17:00,
2013-05-26 14:18:00,41.8,39.1,29.96,WNW,298,6.0,16.0,90,0.00,,,0.29,Wunderground v.1.15,2013-05-26 18:18:00,
2013-05-26 14:20:00,41.9,39.2,29.96,West,261,2.0,11.0,90,0.00,,,0.29,Wunderground v.1.15,2013-05-26 18:20:00,
2013-05-26 14:21:00,42.0,39.3,29.96,SW,233,11.0,12.0,90,0.00,,,0.29,Wunderground v.1.15,2013-05-26 18:21:00,
2013-05-26 14:22:00,42.1,39.1,29.96,NW,304,6.0,17.0,89,0.00,,,0.29,Wunderground v.1.15,2013-05-26 18:22:00,
2013-05-26 14:23:00,42.1,38.8,29.96,South,173,10.0,17.0,88,0.00,,,0.29,Wunderground v.1.15,2013-05-26 18:23:00,
2013-05-26 14:25:00,42.2,38.6,29.96,WNW,297,7.0,18.0,87,0.00,,,0.29,Wunderground v.1.15,2013-05-26 18:25:00,
2013-05-26 14:26:00,42.2,38.6,29.96,SW,234,6.0,18.0,87,0.00,,,0.29,Wunderground v.1.15,2013-05-26 18:26:00,
2013-05-26 14:27:00,42.2,38.6,29.96,West,266,9.0,18.0,87,0.00,,,0.29,Wunderground v.1.15,2013-05-26 18:27:00,
2013-05-26 14:28:00,42.4,38.8,29.96,NW,307,4.0,18.0,87,0.00,,,0.29,Wunderground v.1.15,2013-05-26 18:28:00,
2013-05-26 14:30:00,42.5,38.9,29.96,West,261,6.0,17.0,87,0.00,,,0.29,Wunderground v.1.15,2013-05-26 18:30:00,
2013-05-26 14:31:00,42.5,38.9,29.96,West,261,4.0,17.0,87,0.00,,,0.29,Wunderground v.1.15,2013-05-26 18:31:00,
2013-05-26 14:32:00,42.6,39.0,29.96,West,266,9.0,17.0,87,0.00,,,0.29,Wunderground v.1.15,2013-05-26 18:32:00,
2013-05-26 14:33:00,42.6,38.7,29.96,West,261,5.0,17.0,86,0.00,,,0.29,Wunderground v.1.15,2013-05-26 18:33:00,
2013-05-26 14:36:00,43.0,39.1,29.97,West,259,14.0,17.0,86,0.00,,,0.29,Wunderground v.1.15,2013-05-26 18:36:00,
2013-05-26 14:37:00,43.1,38.9,29.95,SSW,195,6.0,26.0,85,0.00,,,0.30,Wunderground v.1.15,2013-05-26 18:37:00,
2013-05-26 14:38:00,43.2,39.0,29.96,North,360,9.0,26.0,85,0.00,,,0.30,Wunderground v.1.15,2013-05-26 18:38:00,
2013-05-26 14:41:00,43.4,38.9,29.97,West,268,13.0,15.0,84,0.00,,,0.30,Wunderground v.1.15,2013-05-26 18:41:00,
2013-05-26 14:42:00,43.4,38.9,29.97,WNW,294,5.0,15.0,84,0.00,,,0.30,Wunderground v.1.15,2013-05-26 18:42:00,
2013-05-26 14:43:00,43.4,38.9,29.96,WNW,288,8.0,15.0,84,0.00,,,0.30,Wunderground v.1.15,2013-05-26 18:43:00,
2013-05-26 14:44:00,43.4,38.9,29.96,WNW,291,0.0,15.0,84,0.00,,,0.30,Wunderground v.1.15,2013-05-26 18:44:00,
2013-05-26 14:47:00,43.5,39.0,29.97,NW,321,8.0,19.0,84,0.00,,,0.30,Wunderground v.1.15,2013-05-26 18:47:00,
2013-05-26 14:48:00,43.4,38.9,29.96,WNW,294,8.0,19.0,84,0.00,,,0.30,Wunderground v.1.15,2013-05-26 18:48:00,
2013-05-26 14:49:00,43.5,39.3,29.97,WSW,257,7.0,19.0,85,0.00,,,0.30,Wunderground v.1.15,2013-05-26 18:49:00,
2013-05-26 14:52:00,43.6,39.1,29.97,NW,325,9.0,14.0,84,0.00,,,0.30,Wunderground v.1.15,2013-05-26 18:52:00,
2013-05-26 14:54:00,43.6,39.1,29.98,NNW,344,8.0,14.0,84,0.00,,,0.30,Wunderground v.1.15,2013-05-26 18:54:00,
2013-05-26 14:58:00,43.4,38.6,29.97,North,350,5.0,14.0,83,0.00,,,0.30,Wunderground v.1.15,2013-05-26 18:58:00,
2013-05-26 14:59:00,43.4,38.3,29.98,West,260,5.0,14.0,82,0.00,,,0.30,Wunderground v.1.15,2013-05-26 18:59:00,
2013-05-26 15:00:00,43.3,38.2,29.97,West,281,2.0,6.0,82,0.00,,,0.30,Wunderground v.1.15,2013-05-26 19:00:00,
2013-05-26 15:03:00,43.2,38.4,29.97,NNW,336,5.0,12.0,83,0.00,,,0.30,Wunderground v.1.15,2013-05-26 19:03:00,
2013-05-26 15:04:00,43.2,38.7,29.97,SW,221,8.0,12.0,84,0.00,,,0.30,Wunderground v.1.15,2013-05-26 19:04:00,
2013-05-26 15:06:00,43.2,38.7,29.97,North,360,9.0,22.0,84,0.00,,,0.30,Wunderground v.1.15,2013-05-26 19:06:00,
2013-05-26 15:08:00,43.5,39.0,29.97,NNW,333,11.0,22.0,84,0.00,,,0.30,Wunderground v.1.15,2013-05-26 19:08:00,
2013-05-26 15:09:00,43.6,39.1,29.97,NW,321,9.0,22.0,84,0.00,,,0.30,Wunderground v.1.15,2013-05-26 19:09:00,
2013-05-26 15:11:00,43.8,38.7,29.97,WSW,254,4.0,17.0,82,0.00,,,0.30,Wunderground v.1.15,2013-05-26 19:11:00,
2013-05-26 15:13:00,43.8,39.0,29.98,SSE,164,5.0,17.0,83,0.00,,,0.30,Wunderground v.1.15,2013-05-26 19:13:00,
2013-05-26 15:14:00,43.9,39.1,29.98,WNW,288,4.0,17.0,83,0.00,,,0.30,Wunderground v.1.15,2013-05-26 19:14:00,
2013-05-26 15:15:00,43.9,38.8,29.98,SSW,200,14.0,17.0,82,0.00,,,0.30,Wunderground v.1.15,2013-05-26 19:15:00,
2013-05-26 15:16:00,43.9,39.4,29.98,NNW,347,5.0,17.0,84,0.00,,,0.30,Wunderground v.1.15,2013-05-26 19:16:00,
2013-05-26 15:19:00,44.0,38.9,29.98,WSW,254,7.0,17.0,82,0.00,,,0.30,Wunderground v.1.15,2013-05-26 19:19:00,
2013-05-26 15:20:00,44.0,38.9,29.98,SSW,196,12.0,13.0,82,0.00,,,0.30,Wunderground v.1.15,2013-05-26 19:20:00,
2013-05-26 15:21:00,43.9,39.1,29.98,SSW,210,7.0,16.0,83,0.00,,,0.30,Wunderground v.1.15,2013-05-26 19:21:00,
2013-05-26 15:24:00,43.7,38.9,29.98,NNW,334,7.0,19.0,83,0.00,,,0.30,Wunderground v.1.15,2013-05-26 19:24:00,
2013-05-26 15:25:00,43.6,38.5,29.98,WNW,284,7.0,19.0,82,0.00,,,0.30,Wunderground v.1.15,2013-05-26 19:25:00,
2013-05-26 15:27:00,43.4,38.9,29.98,South,170,2.0,20.0,84,0.00,,,0.30,Wunderground v.1.15,2013-05-26 19:27:00,
2013-05-26 15:29:00,43.4,38.9,29.98,SE,131,2.0,20.0,84,0.00,,,0.30,Wunderground v.1.15,2013-05-26 19:29:00,
2013-05-26 15:30:00,43.4,38.9,29.99,West,281,6.0,8.0,84,0.00,,,0.30,Wunderground v.1.15,2013-05-26 19:30:00,
2013-05-26 15:32:00,43.3,38.8,29.99,SW,233,9.0,24.0,84,0.00,,,0.30,Wunderground v.1.15,2013-05-26 19:32:00,
2013-05-26 15:34:00,43.1,38.3,30.00,WNW,298,9.0,24.0,83,0.00,,,0.30,Wunderground v.1.15,2013-05-26 19:34:00,
2013-05-26 15:35:00,43.0,38.5,29.98,NW,307,7.0,24.0,84,0.00,,,0.30,Wunderground v.1.15,2013-05-26 19:35:00,
2013-05-26 15:36:00,42.9,38.4,30.00,SW,233,7.0,24.0,84,0.00,,,0.30,Wunderground v.1.15,2013-05-26 19:36:00,
2013-05-26 15:37:00,42.7,38.2,29.99,WSW,241,10.0,24.0,84,0.00,,,0.30,Wunderground v.1.15,2013-05-26 19:37:00,
2013-05-26 15:38:00,42.7,38.2,29.99,West,259,6.0,24.0,84,0.00,,,0.30,Wunderground v.1.15,2013-05-26 19:38:00,
2013-05-26 15:39:00,42.6,38.7,29.99,West,263,5.0,24.0,86,0.00,,,0.30,Wunderground v.1.15,2013-05-26 19:39:00,
2013-05-26 15:40:00,42.6,38.7,29.99,NNW,332,5.0,8.0,86,0.00,,,0.30,Wunderground v.1.15,2013-05-26 19:40:00,
2013-05-26 15:41:00,42.6,38.4,29.99,East,79,1.0,8.0,85,0.00,,,0.30,Wunderground v.1.15,2013-05-26 19:41:00,
2013-05-26 15:42:00,42.6,38.7,29.99,SSW,211,5.0,17.0,86,0.00,,,0.30,Wunderground v.1.15,2013-05-26 19:42:00,
2013-05-26 15:43:00,42.6,38.7,29.99,NW,313,10.0,17.0,86,0.00,,,0.30,Wunderground v.1.15,2013-05-26 19:43:00,
2013-05-26 15:45:00,42.7,39.1,29.99,SSW,211,10.0,17.0,87,0.00,,,0.30,Wunderground v.1.15,2013-05-26 19:45:00,
2013-05-26 15:46:00,42.8,38.9,29.99,SW,232,6.0,17.0,86,0.00,,,0.30,Wunderground v.1.15,2013-05-26 19:46:00,
2013-05-26 15:48:00,42.9,39.0,29.99,WNW,294,17.0,17.0,86,0.00,,,0.30,Wunderground v.1.15,2013-05-26 19:48:00,
2013-05-26 15:50:00,43.0,38.8,30.00,NW,309,6.0,13.0,85,0.00,,,0.30,Wunderground v.1.15,2013-05-26 19:50:00,
2013-05-26 15:51:00,43.1,38.9,29.99,WSW,248,4.0,13.0,85,0.00,,,0.30,Wunderground v.1.15,2013-05-26 19:51:00,
2013-05-26 15:53:00,43.3,38.8,30.00,WNW,291,7.0,14.0,84,0.00,,,0.30,Wunderground v.1.15,2013-05-26 19:53:00,
2013-05-26 15:55:00,43.4,38.9,30.00,NNW,333,4.0,17.0,84,0.00,,,0.30,Wunderground v.1.15,2013-05-26 19:55:00,
2013-05-26 15:56:00,43.4,38.6,29.99,SW,231,3.0,17.0,83,0.00,,,0.30,Wunderground v.1.15,2013-05-26 19:56:00,
2013-05-26 15:58:00,43.3,38.8,29.99,SE,126,4.0,17.0,84,0.00,,,0.30,Wunderground v.1.15,2013-05-26 19:58:00,
2013-05-26 16:00:00,43.2,38.4,30.00,SSE,148,7.0,16.0,83,0.00,,,0.30,Wunderground v.1.15,2013-05-26 20:00:00,
2013-05-26 16:02:00,43.0,38.5,30.00,WSW,257,8.0,17.0,84,0.00,,,0.30,Wunderground v.1.15,2013-05-26 20:02:00,
2013-05-26 16:03:00,42.8,38.3,30.00,SW,217,3.0,17.0,84,0.00,,,0.30,Wunderground v.1.15,2013-05-26 20:03:00,
2013-05-26 16:04:00,42.8,38.3,30.00,SE,125,6.0,17.0,84,0.00,,,0.30,Wunderground v.1.15,2013-05-26 20:04:00,
2013-05-26 16:05:00,42.7,38.5,30.00,SW,236,10.0,19.0,85,0.00,,,0.30,Wunderground v.1.15,2013-05-26 20:05:00,
2013-05-26 16:07:00,42.7,38.5,30.00,WSW,242,12.0,19.0,85,0.00,,,0.30,Wunderground v.1.15,2013-05-26 20:07:00,
2013-05-26 16:08:00,42.6,38.4,30.00,ENE,61,2.0,19.0,85,0.00,,,0.30,Wunderground v.1.15,2013-05-26 20:08:00,
2013-05-26 16:09:00,42.6,38.4,30.00,WNW,292,4.0,19.0,85,0.00,,,0.30,Wunderground v.1.15,2013-05-26 20:09:00,
2013-05-26 16:10:00,42.6,38.7,30.00,West,259,3.0,12.0,86,0.00,,,0.30,Wunderground v.1.15,2013-05-26 20:10:00,
2013-05-26 16:11:00,42.6,38.7,30.00,West,259,4.0,12.0,86,0.00,,,0.30,Wunderground v.1.15,2013-05-26 20:11:00,
2013-05-26 16:13:00,42.6,39.0,30.00,NE,55,3.0,13.0,87,0.00,,,0.30,Wunderground v.1.15,2013-05-26 20:13:00,
2013-05-26 16:14:00,42.5,38.9,30.01,NE,36,5.0,13.0,87,0.00,,,0.30,Wunderground v.1.15,2013-05-26 20:14:00,
2013-05-26 16:16:00,42.5,39.2,30.00,SSW,200,3.0,13.0,88,0.00,,,0.30,Wunderground v.1.15,2013-05-26 20:16:00,
2013-05-26 16:18:00,42.5,39.2,30.00,West,279,2.0,15.0,88,0.00,,,0.30,Wunderground v.1.15,2013-05-26 20:18:00,
2013-05-26 16:19:00,42.6,39.3,30.01,NE,46,4.0,15.0,88,0.00,,,0.30,Wunderground v.1.15,2013-05-26 20:19:00,
2013-05-26 16:21:00,42.8,39.8,30.01,West,277,6.0,12.0,89,0.00,,,0.30,Wunderground v.1.15,2013-05-26 20:21:00,
2013-05-26 16:23:00,42.8,39.5,30.01,WSW,247,2.0,12.0,88,0.00,,,0.30,Wunderground v.1.15,2013-05-26 20:23:00,
2013-05-26 16:24:00,42.9,39.6,30.01,WSW,255,9.0,18.0,88,0.00,,,0.30,Wunderground v.1.15,2013-05-26 20:24:00,
2013-05-26 16:25:00,42.8,39.5,30.01,West,278,1.0,18.0,88,0.00,,,0.30,Wunderground v.1.15,2013-05-26 20:25:00,
2013-05-26 16:26:00,42.7,39.4,30.01,North,10,5.0,18.0,88,0.00,,,0.30,Wunderground v.1.15,2013-05-26 20:26:00,
2013-05-26 16:27:00,42.7,39.4,30.01,WNW,300,4.0,18.0,88,0.00,,,0.30,Wunderground v.1.15,2013-05-26 20:27:00,
2013-05-26 16:28:00,42.7,39.7,30.01,WNW,298,4.0,18.0,89,0.00,,,0.30,Wunderground v.1.15,2013-05-26 20:28:00,
2013-05-26 16:29:00,42.6,39.3,30.01,North,11,6.0,18.0,88,0.00,,,0.30,Wunderground v.1.15,2013-05-26 20:29:00,
2013-05-26 16:30:00,42.5,39.5,30.01,NNW,329,8.0,9.0,89,0.00,,,0.30,Wunderground v.1.15,2013-05-26 20:30:00,
2013-05-26 16:31:00,42.5,39.5,30.01,SW,223,4.0,9.0,89,0.00,,,0.30,Wunderground v.1.15,2013-05-26 20:31:00,
2013-05-26 16:32:00,42.5,39.8,30.01,West,277,3.0,9.0,90,0.00,,,0.30,Wunderground v.1.15,2013-05-26 20:32:00,
2013-05-26 16:34:00,42.4,39.7,30.01,SSW,202,6.0,10.0,90,0.00,,,0.30,Wunderground v.1.15,2013-05-26 20:34:00,
2013-05-26 16:35:00,42.4,39.7,30.01,WSW,257,3.0,10.0,90,0.00,,,0.30,Wunderground v.1.15,2013-05-26 20:35:00,
2013-05-26 16:36:00,42.2,39.5,30.01,West,259,5.0,14.0,90,0.00,,,0.30,Wunderground v.1.15,2013-05-26 20:36:00,
2013-05-26 16:37:00,42.2,39.5,30.01,NNW,329,7.0,14.0,90,0.00,,,0.30,Wunderground v.1.15,2013-05-26 20:37:00,
2013-05-26 16:40:00,42.0,39.6,30.02,West,277,5.0,6.0,91,0.00,,,0.30,Wunderground v.1.15,2013-05-26 20:40:00,
2013-05-26 16:41:00,41.9,39.5,30.02,NW,323,13.0,22.0,91,0.00,,,0.30,Wunderground v.1.15,2013-05-26 20:41:00,
2013-05-26 16:42:00,41.8,39.4,30.02,North,355,6.0,22.0,91,0.00,,,0.30,Wunderground v.1.15,2013-05-26 20:42:00,
2013-05-26 16:45:00,41.5,39.3,30.02,WNW,288,12.0,22.0,92,0.00,,,0.30,Wunderground v.1.15,2013-05-26 20:45:00,
2013-05-26 16:46:00,41.3,39.2,30.03,SW,232,3.0,22.0,92,0.00,,,0.30,Wunderground v.1.15,2013-05-26 20:46:00,
2013-05-26 16:47:00,41.3,39.2,30.03,SSW,192,4.0,22.0,92,0.00,,,0.30,Wunderground v.1.15,2013-05-26 20:47:00,
2013-05-26 16:50:00,41.2,39.3,30.03,SW,225,4.0,7.0,93,0.00,,,0.30,Wunderground v.1.15,2013-05-26 20:50:00,
2013-05-26 16:51:00,41.1,39.2,30.03,SSW,197,4.0,15.0,93,0.00,,,0.30,Wunderground v.1.15,2013-05-26 20:51:00,
2013-05-26 16:52:00,40.9,39.0,30.02,NW,325,2.0,15.0,93,0.00,,,0.30,Wunderground v.1.15,2013-05-26 20:52:00,
2013-05-26 16:55:00,40.7,38.8,30.03,SSW,213,11.0,15.0,93,0.00,,,0.30,Wunderground v.1.15,2013-05-26 20:55:00,
2013-05-26 16:57:00,40.6,39.0,30.03,NNW,328,3.0,21.0,94,0.00,,,0.30,Wunderground v.1.15,2013-05-26 20:57:00,
2013-05-26 17:00:00,40.5,38.9,30.03,WSW,255,7.0,11.0,94,0.00,,,0.30,Wunderground v.1.15,2013-05-26 21:00:00,
2013-05-26 17:02:00,40.5,38.9,30.03,SW,219,4.0,11.0,94,0.00,,,0.30,Wunderground v.1.15,2013-05-26 21:02:00,
2013-05-26 17:03:00,40.5,38.9,30.03,WNW,302,7.0,14.0,94,0.00,,,0.30,Wunderground v.1.15,2013-05-26 21:03:00,
2013-05-26 17:05:00,40.5,38.9,30.03,NNW,332,4.0,14.0,94,0.00,,,0.30,Wunderground v.1.15,2013-05-26 21:05:00,
2013-05-26 17:06:00,40.5,38.9,30.04,North,10,3.0,14.0,94,0.00,,,0.30,Wunderground v.1.15,2013-05-26 21:06:00,
2013-05-26 17:07:00,40.5,39.2,30.03,SW,215,13.0,14.0,95,0.00,,,0.30,Wunderground v.1.15,2013-05-26 21:07:00,
2013-05-26 17:08:00,40.5,38.9,30.03,North,5,13.0,14.0,94,0.00,,,0.30,Wunderground v.1.15,2013-05-26 21:08:00,
2013-05-26 17:10:00,40.5,38.9,30.03,East,100,5.0,13.0,94,0.00,,,0.30,Wunderground v.1.15,2013-05-26 21:10:00,
2013-05-26 17:11:00,40.5,38.9,30.03,SE,141,9.0,13.0,94,0.00,,,0.30,Wunderground v.1.15,2013-05-26 21:11:00,
2013-05-26 17:13:00,40.4,38.8,30.04,North,11,10.0,13.0,94,0.00,,,0.30,Wunderground v.1.15,2013-05-26 21:13:00,
2013-05-26 17:14:00,40.4,38.8,30.03,South,190,7.0,15.0,94,0.00,,,0.30,Wunderground v.1.15,2013-05-26 21:14:00,
2013-05-26 17:16:00,40.3,38.7,30.04,NW,316,11.0,19.0,94,0.00,,,0.30,Wunderground v.1.15,2013-05-26 21:16:00,
2013-05-26 17:18:00,40.3,38.7,30.04,WNW,298,9.0,19.0,94,0.00,,,0.30,Wunderground v.1.15,2013-05-26 21:18:00,
2013-05-26 17:19:00,40.2,38.6,30.04,SSE,164,5.0,19.0,94,0.00,,,0.30,Wunderground v.1.15,2013-05-26 21:19:00,
2013-05-26 17:21:00,40.2,38.6,30.04,SW,236,8.0,17.0,94,0.00,,,0.30,Wunderground v.1.15,2013-05-26 21:21:00,
2013-05-26 17:23:00,40.2,38.6,30.05,WNW,292,10.0,17.0,94,0.00,,,0.30,Wunderground v.1.15,2013-05-26 21:23:00,
2013-05-26 17:25:00,40.3,39.0,30.04,NE,56,5.0,17.0,95,0.00,,,0.30,Wunderground v.1.15,2013-05-26 21:25:00,
2013-05-26 17:26:00,40.3,39.0,30.04,North,5,4.0,17.0,95,0.00,,,0.30,Wunderground v.1.15,2013-05-26 21:26:00,
2013-05-26 17:27:00,40.4,39.1,30.03,WNW,290,4.0,17.0,95,0.00,,,0.30,Wunderground v.1.15,2013-05-26 21:27:00,
2013-05-26 17:28:00,40.5,39.2,30.03,SSW,205,11.0,17.0,95,0.00,,,0.30,Wunderground v.1.15,2013-05-26 21:28:00,
2013-05-26 17:29:00,40.6,39.3,30.04,WNW,290,5.0,17.0,95,0.00,,,0.30,Wunderground v.1.15,2013-05-26 21:29:00,
2013-05-26 17:30:00,40.7,39.4,30.04,NNE,27,5.0,11.0,95,0.00,,,0.30,Wunderground v.1.15,2013-05-26 21:30:00,
2013-05-26 17:31:00,40.7,39.4,30.04,SE,128,4.0,17.0,95,0.00,,,0.30,Wunderground v.1.15,2013-05-26 21:31:00,
2013-05-26 17:33:00,40.6,39.0,30.04,WNW,294,6.0,17.0,94,0.00,,,0.30,Wunderground v.1.15,2013-05-26 21:33:00,
2013-05-26 17:34:00,40.6,39.0,30.03,South,171,7.0,17.0,94,0.00,,,0.30,Wunderground v.1.15,2013-05-26 21:34:00,
2013-05-26 17:35:00,40.5,39.2,30.04,NNW,343,13.0,17.0,95,0.00,,,0.30,Wunderground v.1.15,2013-05-26 21:35:00,
2013-05-26 17:37:00,40.4,39.1,30.04,West,273,10.0,17.0,95,0.00,,,0.30,Wunderground v.1.15,2013-05-26 21:37:00,
2013-05-26 17:38:00,40.4,39.1,30.04,WSW,244,5.0,17.0,95,0.00,,,0.30,Wunderground v.1.15,2013-05-26 21:38:00,
2013-05-26 17:39:00,40.2,38.9,30.04,WNW,298,2.0,17.0,95,0.00,,,0.30,Wunderground v.1.15,2013-05-26 21:39:00,
2013-05-26 17:41:00,40.1,38.8,30.04,SSW,200,6.0,12.0,95,0.00,,,0.30,Wunderground v.1.15,2013-05-26 21:41:00,
2013-05-26 17:42:00,40.1,38.8,30.04,WNW,288,2.0,12.0,95,0.00,,,0.30,Wunderground v.1.15,2013-05-26 21:42:00,
2013-05-26 17:43:00,40.1,38.8,30.04,North,355,3.0,12.0,95,0.00,,,0.30,Wunderground v.1.15,2013-05-26 21:43:00,
2013-05-26 17:44:00,40.1,39.1,30.04,North,355,11.0,12.0,96,0.00,,,0.30,Wunderground v.1.15,2013-05-26 21:44:00,
2013-05-26 17:46:00,40.1,38.8,30.04,NW,306,11.0,14.0,95,0.00,,,0.30,Wunderground v.1.15,2013-05-26 21:46:00,
2013-05-26 17:47:00,40.1,38.8,30.03,NW,306,5.0,14.0,95,0.00,,,0.30,Wunderground v.1.15,2013-05-26 21:47:00,
2013-05-26 17:48:00,40.1,38.8,30.04,West,271,12.0,14.0,95,0.00,,,0.30,Wunderground v.1.15,2013-05-26 21:48:00,
2013-05-26 17:49:00,40.1,38.8,30.04,NW,316,9.0,14.0,95,0.00,,,0.30,Wunderground v.1.15,2013-05-26 21:49:00,
2013-05-26 17:51:00,40.0,38.7,30.04,NE,38,1.0,16.0,95,0.00,,,0.30,Wunderground v.1.15,2013-05-26 21:51:00,
2013-05-26 17:52:00,40.1,39.1,30.04,North,350,4.0,16.0,96,0.00,,,0.30,Wunderground v.1.15,2013-05-26 21:52:00,
2013-05-26 17:53:00,40.1,39.1,30.04,West,276,1.0,16.0,96,0.00,,,0.30,Wunderground v.1.15,2013-05-26 21:53:00,
2013-05-26 17:54:00,40.1,39.1,30.04,NNW,334,16.0,16.0,96,0.00,,,0.30,Wunderground v.1.15,2013-05-26 21:54:00,
2013-05-26 17:56:00,40.1,39.1,30.04,West,268,6.0,16.0,96,0.00,,,0.30,Wunderground v.1.15,2013-05-26 21:56:00,
2013-05-26 17:57:00,40.1,39.1,30.04,WNW,292,5.0,16.0,96,0.00,,,0.30,Wunderground v.1.15,2013-05-26 21:57:00,
2013-05-26 17:58:00,40.1,39.1,30.04,North,355,10.0,16.0,96,0.00,,,0.30,Wunderground v.1.15,2013-05-26 21:58:00,
2013-05-26 17:59:00,40.0,39.0,30.05,East,96,4.0,16.0,96,0.00,,,0.30,Wunderground v.1.15,2013-05-26 21:59:00,
2013-05-26 18:01:00,40.1,39.1,30.04,West,279,8.0,19.0,96,0.00,,,0.30,Wunderground v.1.15,2013-05-26 22:01:00,
2013-05-26 18:03:00,40.2,39.2,30.05,NW,315,15.0,19.0,96,0.00,,,0.30,Wunderground v.1.15,2013-05-26 22:03:00,
2013-05-26 18:04:00,40.3,39.3,30.04,West,269,14.0,19.0,96,0.00,,,0.30,Wunderground v.1.15,2013-05-26 22:04:00,
2013-05-26 18:05:00,40.3,39.3,30.04,WNW,283,6.0,19.0,96,0.00,,,0.30,Wunderground v.1.15,2013-05-26 22:05:00,
2013-05-26 18:07:00,40.4,39.4,30.05,NNW,332,5.0,19.0,96,0.00,,,0.30,Wunderground v.1.15,2013-05-26 22:07:00,
2013-05-26 18:08:00,40.6,39.5,30.05,SSW,192,2.0,19.0,96,0.00,,,0.30,Wunderground v.1.15,2013-05-26 22:08:00,
2013-05-26 18:09:00,40.6,39.5,30.05,WNW,300,3.0,19.0,96,0.00,,,0.30,Wunderground v.1.15,2013-05-26 22:09:00,
2013-05-26 18:10:00,40.7,39.6,30.05,West,262,9.0,9.0,96,0.00,,,0.30,Wunderground v.1.15,2013-05-26 22:10:00,
2013-05-26 18:12:00,40.7,39.6,30.05,WNW,298,5.0,11.0,96,0.00,,,0.30,Wunderground v.1.15,2013-05-26 22:12:00,
2013-05-26 18:14:00,40.8,39.7,30.05,SSW,194,3.0,11.0,96,0.00,,,0.30,Wunderground v.1.15,2013-05-26 22:14:00,
2013-05-26 18:15:00,40.7,39.6,30.05,SSE,155,4.0,11.0,96,0.00,,,0.30,Wunderground v.1.15,2013-05-26 22:15:00,
2013-05-26 18:17:00,40.7,39.6,30.05,NW,306,7.0,16.0,96,0.00,,,0.30,Wunderground v.1.15,2013-05-26 22:17:00,
2013-05-26 18:19:00,40.6,39.5,30.06,NNE,22,2.0,16.0,96,0.00,,,0.30,Wunderground v.1.15,2013-05-26 22:19:00,
2013-05-26 18:20:00,40.6,39.5,30.06,NW,309,2.0,8.0,96,0.00,,,0.30,Wunderground v.1.15,2013-05-26 22:20:00,
2013-05-26 18:22:00,40.6,39.5,30.06,WNW,284,2.0,8.0,96,0.00,,,0.30,Wunderground v.1.15,2013-05-26 22:22:00,
2013-05-26 18:25:00,40.5,39.4,30.05,SSE,150,6.0,13.0,96,0.00,,,0.30,Wunderground v.1.15,2013-05-26 22:25:00,
2013-05-26 18:26:00,40.5,39.4,30.05,NW,326,3.0,13.0,96,0.00,,,0.30,Wunderground v.1.15,2013-05-26 22:26:00,
2013-05-26 18:27:00,40.5,39.4,30.05,SW,226,6.0,16.0,96,0.00,,,0.30,Wunderground v.1.15,2013-05-26 22:27:00,
2013-05-26 18:30:00,40.5,39.4,30.06,West,273,6.0,16.0,96,0.00,,,0.30,Wunderground v.1.15,2013-05-26 22:30:00,
2013-05-26 18:32:00,40.6,39.5,30.05,NE,50,4.0,14.0,96,0.00,,,0.30,Wunderground v.1.15,2013-05-26 22:32:00,
2013-05-26 18:33:00,40.6,39.5,30.05,West,261,7.0,14.0,96,0.00,,,0.30,Wunderground v.1.15,2013-05-26 22:33:00,
2013-05-26 18:35:00,40.7,39.4,30.06,WSW,238,0.0,14.0,95,0.00,,,0.30,Wunderground v.1.15,2013-05-26 22:35:00,
2013-05-26 18:37:00,40.7,39.4,30.06,SSE,149,4.0,14.0,95,0.00,,,0.30,Wunderground v.1.15,2013-05-26 22:37:00,
2013-05-26 18:38:00,40.8,39.5,30.06,ENE,63,3.0,15.0,95,0.00,,,0.31,Wunderground v.1.15,2013-05-26 22:38:00,
2013-05-26 18:40:00,40.9,39.6,30.06,WSW,244,3.0,6.0,95,0.00,,,0.31,Wunderground v.1.15,2013-05-26 22:40:00,
2013-05-26 18:42:00,40.9,39.6,30.07,North,5,5.0,7.0,95,0.00,,,0.31,Wunderground v.1.15,2013-05-26 22:42:00,
2013-05-26 18:43:00,40.9,39.6,30.07,NNE,13,9.0,11.0,95,0.00,,,0.31,Wunderground v.1.15,2013-05-26 22:43:00,
2013-05-26 18:45:00,40.9,39.6,30.07,SSE,158,5.0,11.0,95,0.00,,,0.31,Wunderground v.1.15,2013-05-26 22:45:00,
2013-05-26 18:46:00,40.9,39.6,30.07,North,355,3.0,11.0,95,0.00,,,0.31,Wunderground v.1.15,2013-05-26 22:46:00,
2013-05-26 18:47:00,40.9,39.6,30.07,NNW,336,12.0,17.0,95,0.00,,,0.31,Wunderground v.1.15,2013-05-26 22:47:00,
2013-05-26 18:48:00,41.0,39.7,30.08,WSW,254,1.0,17.0,95,0.00,,,0.31,Wunderground v.1.15,2013-05-26 22:48:00,
2013-05-26 18:51:00,41.2,39.9,30.07,SW,221,10.0,11.0,95,0.00,,,0.31,Wunderground v.1.15,2013-05-26 22:51:00,
2013-05-26 18:52:00,41.3,40.0,30.07,SW,222,10.0,14.0,95,0.00,,,0.31,Wunderground v.1.15,2013-05-26 22:52:00,
2013-05-26 18:54:00,41.4,39.8,30.07,NE,34,4.0,14.0,94,0.00,,,0.31,Wunderground v.1.15,2013-05-26 22:54:00,
2013-05-26 18:56:00,41.4,40.1,30.08,NNW,346,7.0,15.0,95,0.00,,,0.31,Wunderground v.1.15,2013-05-26 22:56:00,
2013-05-26 18:57:00,41.4,40.1,30.07,WSW,252,5.0,15.0,95,0.00,,,0.31,Wunderground v.1.15,2013-05-26 22:57:00,
2013-05-26 18:58:00,41.3,40.0,30.08,NW,305,11.0,15.0,95,0.00,,,0.31,Wunderground v.1.15,2013-05-26 22:58:00,
2013-05-26 18:59:00,41.2,39.9,30.08,SW,229,8.0,15.0,95,0.00,,,0.31,Wunderground v.1.15,2013-05-26 22:59:00,
2013-05-26 19:01:00,41.1,39.5,30.08,South,187,1.0,9.0,94,0.00,,,0.31,Wunderground v.1.15,2013-05-26 23:01:00,
2013-05-26 19:02:00,41.0,39.4,30.08,West,271,8.0,10.0,94,0.00,,,0.31,Wunderground v.1.15,2013-05-26 23:02:00,
2013-05-26 19:03:00,40.9,39.3,30.08,SSW,204,8.0,11.0,94,0.00,,,0.31,Wunderground v.1.15,2013-05-26 23:03:00,
2013-05-26 19:04:00,40.8,39.2,30.08,ENE,65,2.0,12.0,94,0.00,,,0.31,Wunderground v.1.15,2013-05-26 23:04:00,
2013-05-26 19:06:00,40.7,39.1,30.08,WSW,248,2.0,12.0,94,0.00,,,0.31,Wunderground v.1.15,2013-05-26 23:06:00,
2013-05-26 19:07:00,40.7,39.1,30.08,NW,304,6.0,12.0,94,0.00,,,0.31,Wunderground v.1.15,2013-05-26 23:07:00,
2013-05-26 19:08:00,40.7,39.1,30.08,West,275,1.0,12.0,94,0.00,,,0.31,Wunderground v.1.15,2013-05-26 23:08:00,
2013-05-26 19:09:00,40.6,39.0,30.08,NNE,15,4.0,12.0,94,0.00,,,0.31,Wunderground v.1.15,2013-05-26 23:09:00,
2013-05-26 19:12:00,40.6,39.0,30.08,WSW,257,7.0,16.0,94,0.00,,,0.31,Wunderground v.1.15,2013-05-26 23:12:00,
2013-05-26 19:13:00,40.6,39.0,30.08,West,281,6.0,16.0,94,0.00,,,0.31,Wunderground v.1.15,2013-05-26 23:13:00,
2013-05-26 19:15:00,40.6,39.3,30.07,SW,229,10.0,16.0,95,0.00,,,0.31,Wunderground v.1.15,2013-05-26 23:15:00,
2013-05-26 19:17:00,40.6,39.3,30.08,NW,311,1.0,16.0,95,0.00,,,0.31,Wunderground v.1.15,2013-05-26 23:17:00,
2013-05-26 19:18:00,40.6,39.3,30.08,SSW,198,2.0,16.0,95,0.00,,,0.31,Wunderground v.1.15,2013-05-26 23:18:00,
2013-05-26 19:20:00,40.8,39.5,30.08,West,268,3.0,5.0,95,0.00,,,0.31,Wunderground v.1.15,2013-05-26 23:20:00,
2013-05-26 19:22:00,40.9,39.6,30.08,South,169,1.0,7.0,95,0.00,,,0.31,Wunderground v.1.15,2013-05-26 23:22:00,
2013-05-26 19:24:00,41.1,39.8,30.08,West,270,6.0,10.0,95,0.00,,,0.31,Wunderground v.1.15,2013-05-26 23:24:00,
2013-05-26 19:25:00,41.1,39.5,30.08,WSW,255,5.0,10.0,94,0.00,,,0.31,Wunderground v.1.15,2013-05-26 23:25:00,
2013-05-26 19:27:00,41.0,39.4,30.08,West,279,4.0,10.0,94,0.00,,,0.31,Wunderground v.1.15,2013-05-26 23:27:00,
2013-05-26 19:29:00,40.9,39.6,30.08,ENE,71,1.0,10.0,95,0.00,,,0.31,Wunderground v.1.15,2013-05-26 23:29:00,
2013-05-26 19:30:00,40.9,39.6,30.08,NNW,344,2.0,4.0,95,0.00,,,0.31,Wunderground v.1.15,2013-05-26 23:30:00,
2013-05-26 19:32:00,40.8,39.5,30.08,WNW,294,5.0,6.0,95,0.00,,,0.31,Wunderground v.1.15,2013-05-26 23:32:00,
2013-05-26 19:33:00,40.8,39.5,30.08,NNW,336,8.0,9.0,95,0.00,,,0.31,Wunderground v.1.15,2013-05-26 23:33:00,
2013-05-26 19:34:00,40.7,39.4,30.08,NNE,21,4.0,9.0,95,0.00,,,0.31,Wunderground v.1.15,2013-05-26 23:34:00,
2013-05-26 19:35:00,40.7,39.4,30.08,North,355,5.0,9.0,95,0.00,,,0.31,Wunderground v.1.15,2013-05-26 23:35:00,
2013-05-26 19:37:00,40.8,39.5,30.08,NW,323,1.0,9.0,95,0.00,,,0.31,Wunderground v.1.15,2013-05-26 23:37:00,
2013-05-26 19:38:00,40.9,39.6,30.08,NW,323,7.0,9.0,95,0.00,,,0.31,Wunderground v.1.15,2013-05-26 23:38:00,
2013-05-26 19:39:00,41.0,39.7,30.08,SE,143,4.0,9.0,95,0.00,,,0.31,Wunderground v.1.15,2013-05-26 23:39:00,
2013-05-26 19:40:00,41.0,41.0,30.08,WSW,242,2.0,4.0,100,0.00,,,0.31,Wunderground v.1.15,2013-05-26 23:40:00,
2013-05-26 19:42:00,41.1,39.8,30.08,SSW,208,0.0,9.0,95,0.00,,,0.31,Wunderground v.1.15,2013-05-26 23:42:00,
2013-05-26 19:43:00,41.1,39.8,30.08,NNE,22,10.0,11.0,95,0.00,,,0.31,Wunderground v.1.15,2013-05-26 23:43:00,
2013-05-26 19:45:00,41.1,39.5,30.07,West,267,3.0,11.0,94,0.00,,,0.31,Wunderground v.1.15,2013-05-26 23:45:00,
2013-05-26 19:47:00,41.1,39.8,30.08,West,269,5.0,11.0,95,0.00,,,0.31,Wunderground v.1.15,2013-05-26 23:47:00,
2013-05-26 19:48:00,41.1,39.5,30.07,West,264,4.0,11.0,94,0.00,,,0.31,Wunderground v.1.15,2013-05-26 23:48:00,
2013-05-26 19:50:00,41.1,39.5,30.08,SW,218,5.0,10.0,94,0.00,,,0.31,Wunderground v.1.15,2013-05-26 23:50:00,
2013-05-26 19:52:00,41.0,41.0,30.08,North,5,3.0,12.0,100,0.00,,,0.31,Wunderground v.1.15,2013-05-26 23:52:00,
2013-05-26 19:53:00,40.9,39.3,30.08,NW,306,1.0,12.0,94,0.00,,,0.31,Wunderground v.1.15,2013-05-26 23:53:00,
2013-05-26 19:55:00,40.8,39.2,30.07,NW,319,2.0,12.0,94,0.00,,,0.31,Wunderground v.1.15,2013-05-26 23:55:00,
2013-05-26 19:57:00,40.7,39.1,30.07,NW,315,4.0,12.0,94,0.00,,,0.31,Wunderground v.1.15,2013-05-26 23:57:00,
2013-05-26 19:58:00,40.7,39.1,30.08,NNW,341,2.0,12.0,94,0.00,,,0.31,Wunderground v.1.15,2013-05-26 23:58:00,
2013-05-26 20:00:00,40.5,38.9,30.07,NNE,30,3.0,4.0,94,0.00,,,0.32,Wunderground v.1.15,2013-05-27 00:00:00,
2013-05-26 20:01:00,40.5,38.9,30.07,West,271,3.0,5.0,94,0.00,,,0.32,Wunderground v.1.15,2013-05-27 00:01:00,
2013-05-26 20:02:00,40.4,38.8,30.07,WSW,256,12.0,12.0,94,0.00,,,0.32,Wunderground v.1.15,2013-05-27 00:02:00,
2013-05-26 20:03:00,40.3,38.7,30.07,West,261,0.0,12.0,94,0.00,,,0.32,Wunderground v.1.15,2013-05-27 00:03:00,
2013-05-26 20:05:00,40.2,38.6,30.07,North,360,2.0,12.0,94,0.00,,,0.32,Wunderground v.1.15,2013-05-27 00:05:00,
2013-05-26 20:06:00,40.2,38.9,30.07,NNE,14,2.0,15.0,95,0.00,,,0.32,Wunderground v.1.15,2013-05-27 00:06:00,
2013-05-26 20:08:00,40.2,38.9,30.07,NW,312,0.0,15.0,95,0.00,,,0.32,Wunderground v.1.15,2013-05-27 00:08:00,
2013-05-26 20:10:00,40.1,38.8,30.07,NE,44,2.0,15.0,95,0.00,,,0.32,Wunderground v.1.15,2013-05-27 00:10:00,
2013-05-26 20:11:00,40.1,38.8,30.07,SW,219,7.0,9.0,95,0.00,,,0.32,Wunderground v.1.15,2013-05-27 00:11:00,
2013-05-26 20:13:00,40.0,38.7,30.07,NW,308,2.0,11.0,95,0.00,,,0.32,Wunderground v.1.15,2013-05-27 00:13:00,
2013-05-26 20:14:00,40.0,38.7,30.08,NW,308,0.0,11.0,95,0.00,,,0.32,Wunderground v.1.15,2013-05-27 00:14:00,
2013-05-26 20:15:00,39.9,38.6,30.07,SSE,149,0.0,11.0,95,0.00,,,0.32,Wunderground v.1.15,2013-05-27 00:15:00,
2013-05-26 20:16:00,39.9,38.6,30.08,SW,219,4.0,14.0,95,0.00,,,0.32,Wunderground v.1.15,2013-05-27 00:16:00,
2013-05-26 20:17:00,39.8,38.5,30.07,WSW,248,2.0,14.0,95,0.00,,,0.32,Wunderground v.1.15,2013-05-27 00:17:00,
2013-05-26 20:18:00,39.8,38.5,30.08,NW,311,4.0,14.0,95,0.00,,,0.32,Wunderground v.1.15,2013-05-27 00:18:00,
2013-05-26 20:19:00,39.8,38.5,30.08,ENE,68,0.0,14.0,95,0.00,,,0.32,Wunderground v.1.15,2013-05-27 00:19:00,
2013-05-26 20:20:00,39.8,38.5,30.07,NW,305,1.0,3.0,95,0.00,,,0.32,Wunderground v.1.15,2013-05-27 00:20:00,
2013-05-26 20:21:00,39.7,38.4,30.08,NW,325,0.0,6.0,95,0.00,,,0.32,Wunderground v.1.15,2013-05-27 00:21:00,
2013-05-26 20:22:00,39.8,38.5,30.08,NW,320,1.0,6.0,95,0.00,,,0.32,Wunderground v.1.15,2013-05-27 00:22:00,
2013-05-26 20:23:00,39.7,38.4,30.07,WNW,288,3.0,7.0,95,0.00,,,0.32,Wunderground v.1.15,2013-05-27 00:23:00,
2013-05-26 20:24:00,39.7,38.7,30.07,SW,230,3.0,7.0,96,0.00,,,0.32,Wunderground v.1.15,2013-05-27 00:24:00,
2013-05-26 20:25:00,39.7,38.4,30.08,NW,319,4.0,12.0,95,0.00,,,0.32,Wunderground v.1.15,2013-05-27 00:25:00,
2013-05-26 20:26:00,39.8,38.5,30.08,WSW,244,8.0,12.0,95,0.00,,,0.32,Wunderground v.1.15,2013-05-27 00:26:00,
2013-05-26 20:28:00,39.8,38.5,30.08,South,190,0.0,12.0,95,0.00,,,0.32,Wunderground v.1.15,2013-05-27 00:28:00,
2013-05-26 20:29:00,39.8,38.5,30.07,WNW,294,1.0,12.0,95,0.00,,,0.32,Wunderground v.1.15,2013-05-27 00:29:00,
2013-05-26 20:30:00,39.7,38.4,30.08,NW,317,3.0,3.0,95,0.00,,,0.32,Wunderground v.1.15,2013-05-27 00:30:00,
2013-05-26 20:32:00,39.7,38.7,30.08,NNW,334,0.0,13.0,96,0.00,,,0.32,Wunderground v.1.15,2013-05-27 00:32:00,
2013-05-26 20:33:00,39.7,38.7,30.07,WSW,249,7.0,13.0,96,0.00,,,0.32,Wunderground v.1.15,2013-05-27 00:33:00,
2013-05-26 20:34:00,39.7,38.7,30.08,North,5,0.0,13.0,96,0.00,,,0.32,Wunderground v.1.15,2013-05-27 00:34:00,
2013-05-26 20:35:00,39.6,38.6,30.08,SSW,200,0.0,13.0,96,0.00,,,0.32,Wunderground v.1.15,2013-05-27 00:35:00,
2013-05-26 20:36:00,39.6,38.6,30.08,SSW,200,0.0,13.0,96,0.00,,,0.32,Wunderground v.1.15,2013-05-27 00:36:00,
2013-05-26 20:37:00,39.6,38.6,30.08,WNW,285,1.0,13.0,96,0.00,,,0.32,Wunderground v.1.15,2013-05-27 00:37:00,
2013-05-26 20:39:00,39.5,38.5,30.08,WSW,244,0.0,13.0,96,0.00,,,0.32,Wunderground v.1.15,2013-05-27 00:39:00,
2013-05-26 20:40:00,39.5,38.5,30.08,South,177,5.0,13.0,96,0.00,,,0.32,Wunderground v.1.15,2013-05-27 00:40:00,
2013-05-26 20:41:00,39.5,38.5,30.08,SSW,208,2.0,5.0,96,0.00,,,0.32,Wunderground v.1.15,2013-05-27 00:41:00,
2013-05-26 20:43:00,39.4,38.4,30.08,NNW,337,0.0,6.0,96,0.00,,,0.32,Wunderground v.1.15,2013-05-27 00:43:00,
2013-05-26 20:44:00,39.4,38.4,30.08,ENE,73,4.0,6.0,96,0.00,,,0.32,Wunderground v.1.15,2013-05-27 00:44:00,
2013-05-26 20:45:00,39.4,38.4,30.08,South,171,0.0,6.0,96,0.00,,,0.32,Wunderground v.1.15,2013-05-27 00:45:00,
2013-05-26 20:46:00,39.4,38.4,30.08,SSW,192,5.0,6.0,96,0.00,,,0.32,Wunderground v.1.15,2013-05-27 00:46:00,
2013-05-26 20:48:00,39.4,38.4,30.08,NNW,338,0.0,6.0,96,0.00,,,0.32,Wunderground v.1.15,2013-05-27 00:48:00,
2013-05-26 20:49:00,39.3,38.3,30.08,NNW,338,0.0,6.0,96,0.00,,,0.32,Wunderground v.1.15,2013-05-27 00:49:00,
2013-05-26 20:50:00,39.3,38.3,30.08,WNW,285,3.0,3.0,96,0.00,,,0.32,Wunderground v.1.15,2013-05-27 00:50:00,
2013-05-26 20:51:00,39.3,38.3,30.08,North,11,1.0,3.0,96,0.00,,,0.32,Wunderground v.1.15,2013-05-27 00:51:00,
2013-05-26 20:52:00,39.3,38.3,30.08,North,11,0.0,3.0,96,0.00,,,0.32,Wunderground v.1.15,2013-05-27 00:52:00,
2013-05-26 20:53:00,39.3,38.3,30.08,WSW,254,0.0,3.0,96,0.00,,,0.32,Wunderground v.1.15,2013-05-27 00:53:00,
2013-05-26 20:54:00,39.3,38.3,30.08,WSW,254,0.0,3.0,96,0.00,,,0.32,Wunderground v.1.15,2013-05-27 00:54:00,
2013-05-26 20:55:00,39.2,38.2,30.08,WSW,254,0.0,3.0,96,0.00,,,0.32,Wunderground v.1.15,2013-05-27 00:55:00,
2013-05-26 20:56:00,39.2,38.2,30.08,WSW,254,0.0,3.0,96,0.00,,,0.32,Wunderground v.1.15,2013-05-27 00:56:00,
2013-05-26 20:58:00,39.2,38.2,30.08,SSE,162,0.0,3.0,96,0.00,,,0.32,Wunderground v.1.15,2013-05-27 00:58:00,
2013-05-26 20:59:00,39.2,38.2,30.08,SSE,162,0.0,3.0,96,0.00,,,0.32,Wunderground v.1.15,2013-05-27 00:59:00,
2013-05-26 21:00:00,39.1,38.1,30.08,NNW,339,2.0,4.0,96,0.00,,,0.32,Wunderground v.1.15,2013-05-27 01:00:00,
2013-05-26 21:02:00,39.1,38.1,30.08,NW,321,0.0,4.0,96,0.00,,,0.32,Wunderground v.1.15,2013-05-27 01:02:00,
2013-05-26 21:03:00,39.0,38.0,30.08,West,273,2.0,5.0,96,0.00,,,0.32,Wunderground v.1.15,2013-05-27 01:03:00,
2013-05-26 21:04:00,39.0,38.0,30.08,West,271,0.0,5.0,96,0.00,,,0.32,Wunderground v.1.15,2013-05-27 01:04:00,
2013-05-26 21:06:00,39.0,38.0,30.08,WNW,294,0.0,5.0,96,0.00,,,0.32,Wunderground v.1.15,2013-05-27 01:06:00,
2013-05-26 21:07:00,39.0,38.0,30.08,NW,319,0.0,5.0,96,0.00,,,0.32,Wunderground v.1.15,2013-05-27 01:07:00,
2013-05-26 21:08:00,39.0,38.0,30.09,NNW,327,0.0,5.0,96,0.00,,,0.32,Wunderground v.1.15,2013-05-27 01:08:00,
2013-05-26 21:09:00,39.0,38.0,30.09,NNW,348,0.0,5.0,96,0.00,,,0.32,Wunderground v.1.15,2013-05-27 01:09:00,
2013-05-26 21:10:00,39.0,38.0,30.09,NW,307,3.0,4.0,96,0.00,,,0.32,Wunderground v.1.15,2013-05-27 01:10:00,
2013-05-26 21:11:00,39.0,38.2,30.09,NNE,25,3.0,4.0,97,0.00,,,0.32,Wunderground v.1.15,2013-05-27 01:11:00,
2013-05-26 21:12:00,39.0,38.2,30.09,North,355,0.0,4.0,97,0.00,,,0.32,Wunderground v.1.15,2013-05-27 01:12:00,
2013-05-26 21:14:00,39.0,38.2,30.09,NW,311,0.0,4.0,97,0.00,,,0.32,Wunderground v.1.15,2013-05-27 01:14:00,
2013-05-26 21:15:00,39.0,38.2,30.09,NW,322,0.0,4.0,97,0.00,,,0.32,Wunderground v.1.15,2013-05-27 01:15:00,
2013-05-26 21:17:00,38.9,38.1,30.09,NW,305,0.0,4.0,97,0.00,,,0.32,Wunderground v.1.15,2013-05-27 01:17:00,
2013-05-26 21:18:00,38.9,38.1,30.09,NW,305,0.0,4.0,97,0.00,,,0.32,Wunderground v.1.15,2013-05-27 01:18:00,
2013-05-26 21:19:00,38.9,38.1,30.09,NW,305,0.0,4.0,97,0.00,,,0.32,Wunderground v.1.15,2013-05-27 01:19:00,
2013-05-26 21:20:00,38.9,38.1,30.09,NW,305,0.0,1.0,97,0.00,,,0.32,Wunderground v.1.15,2013-05-27 01:20:00,
2013-05-26 21:22:00,38.8,38.0,30.09,NNW,344,0.0,1.0,97,0.00,,,0.32,Wunderground v.1.15,2013-05-27 01:22:00,
2013-05-26 21:23:00,38.8,38.0,30.09,NNW,344,0.0,1.0,97,0.00,,,0.32,Wunderground v.1.15,2013-05-27 01:23:00,
2013-05-26 21:24:00,38.8,38.0,30.09,NNW,344,0.0,1.0,97,0.00,,,0.32,Wunderground v.1.15,2013-05-27 01:24:00,
2013-05-26 21:25:00,38.8,38.0,30.09,NNW,344,0.0,1.0,97,0.00,,,0.32,Wunderground v.1.15,2013-05-27 01:25:00,
2013-05-26 21:28:00,38.7,37.7,30.09,NNW,344,0.0,1.0,96,0.00,,,0.32,Wunderground v.1.15,2013-05-27 01:28:00,
2013-05-26 21:29:00,38.7,37.9,30.09,NNW,344,0.0,1.0,97,0.00,,,0.32,Wunderground v.1.15,2013-05-27 01:29:00,
2013-05-26 21:30:00,38.7,37.9,30.09,NNW,344,0.0,0.0,97,0.00,,,0.32,Wunderground v.1.15,2013-05-27 01:30:00,
2013-05-26 21:33:00,38.6,37.6,30.09,NNW,344,0.0,0.0,96,0.00,,,0.32,Wunderground v.1.15,2013-05-27 01:33:00,
2013-05-26 21:35:00,38.5,37.7,30.09,NNW,344,0.0,0.0,97,0.00,,,0.32,Wunderground v.1.15,2013-05-27 01:35:00,
2013-05-26 21:38:00,38.5,37.7,30.09,NW,312,0.0,1.0,97,0.00,,,0.32,Wunderground v.1.15,2013-05-27 01:38:00,
2013-05-26 21:40:00,38.5,37.7,30.09,NW,312,0.0,0.0,97,0.00,,,0.32,Wunderground v.1.15,2013-05-27 01:40:00,
2013-05-26 21:41:00,38.5,37.7,30.09,NW,312,0.0,0.0,97,0.00,,,0.32,Wunderground v.1.15,2013-05-27 01:41:00,
2013-05-26 21:43:00,38.4,37.6,30.09,NW,312,0.0,0.0,97,0.00,,,0.32,Wunderground v.1.15,2013-05-27 01:43:00,
2013-05-26 21:45:00,38.4,37.6,30.09,NW,312,0.0,0.0,97,0.00,,,0.32,Wunderground v.1.15,2013-05-27 01:45:00,
2013-05-26 21:46:00,38.4,37.6,30.09,NW,312,0.0,0.0,97,0.00,,,0.32,Wunderground v.1.15,2013-05-27 01:46:00,
2013-05-26 21:48:00,38.3,37.5,30.09,NW,312,0.0,0.0,97,0.00,,,0.32,Wunderground v.1.15,2013-05-27 01:48:00,
2013-05-26 21:49:00,38.3,37.5,30.09,NW,312,0.0,0.0,97,0.00,,,0.32,Wunderground v.1.15,2013-05-27 01:49:00,
2013-05-26 21:50:00,38.3,37.5,30.09,NW,312,0.0,0.0,97,0.00,,,0.32,Wunderground v.1.15,2013-05-27 01:50:00,
2013-05-26 21:51:00,38.2,37.4,30.09,West,263,0.0,1.0,97,0.00,,,0.32,Wunderground v.1.15,2013-05-27 01:51:00,
2013-05-26 21:52:00,38.3,37.5,30.09,West,263,0.0,1.0,97,0.00,,,0.32,Wunderground v.1.15,2013-05-27 01:52:00,
2013-05-26 21:53:00,38.2,37.4,30.09,NW,317,0.0,1.0,97,0.00,,,0.32,Wunderground v.1.15,2013-05-27 01:53:00,
2013-05-26 21:54:00,38.3,37.5,30.09,NW,318,0.0,1.0,97,0.00,,,0.32,Wunderground v.1.15,2013-05-27 01:54:00,
2013-05-26 21:56:00,38.3,37.5,30.09,NNW,335,3.0,3.0,97,0.00,,,0.32,Wunderground v.1.15,2013-05-27 01:56:00,
2013-05-26 21:57:00,38.3,37.5,30.09,NW,313,0.0,3.0,97,0.00,,,0.32,Wunderground v.1.15,2013-05-27 01:57:00,
2013-05-26 21:59:00,38.2,37.4,30.09,SW,220,0.0,3.0,97,0.00,,,0.32,Wunderground v.1.15,2013-05-27 01:59:00,
2013-05-26 22:01:00,38.2,37.4,30.09,SW,219,0.0,0.0,97,0.00,,,0.32,Wunderground v.1.15,2013-05-27 02:01:00,
2013-05-26 22:02:00,38.2,37.4,30.09,WSW,248,0.0,0.0,97,0.00,,,0.32,Wunderground v.1.15,2013-05-27 02:02:00,
2013-05-26 22:04:00,38.2,37.4,30.09,South,171,0.0,0.0,97,0.00,,,0.32,Wunderground v.1.15,2013-05-27 02:04:00,
2013-05-26 22:06:00,38.2,37.4,30.09,SSE,149,0.0,2.0,97,0.00,,,0.32,Wunderground v.1.15,2013-05-27 02:06:00,
2013-05-26 22:07:00,38.2,37.4,30.09,SSE,156,0.0,2.0,97,0.00,,,0.32,Wunderground v.1.15,2013-05-27 02:07:00,
2013-05-26 22:08:00,38.2,37.4,30.09,SSE,157,0.0,2.0,97,0.00,,,0.32,Wunderground v.1.15,2013-05-27 02:08:00,
2013-05-26 22:09:00,38.2,37.4,30.09,SSE,157,0.0,2.0,97,0.00,,,0.32,Wunderground v.1.15,2013-05-27 02:09:00,
2013-05-26 22:11:00,38.1,37.3,30.09,SSE,157,0.0,0.0,97,0.00,,,0.32,Wunderground v.1.15,2013-05-27 02:11:00,
2013-05-26 22:12:00,38.0,37.2,30.09,SSE,157,0.0,0.0,97,0.00,,,0.32,Wunderground v.1.15,2013-05-27 02:12:00,
2013-05-26 22:13:00,38.0,37.2,30.09,SSE,157,0.0,1.0,97,0.00,,,0.32,Wunderground v.1.15,2013-05-27 02:13:00,
2013-05-26 22:14:00,38.0,37.2,30.09,SSE,157,0.0,1.0,97,0.00,,,0.32,Wunderground v.1.15,2013-05-27 02:14:00,
2013-05-26 22:16:00,37.9,37.1,30.10,SSE,157,0.0,1.0,97,0.00,,,0.32,Wunderground v.1.15,2013-05-27 02:16:00,
2013-05-26 22:17:00,37.9,37.1,30.09,SSE,157,0.0,1.0,97,0.00,,,0.32,Wunderground v.1.15,2013-05-27 02:17:00,
2013-05-26 22:18:00,37.9,37.1,30.10,SSE,157,0.0,1.0,97,0.00,,,0.32,Wunderground v.1.15,2013-05-27 02:18:00,
2013-05-26 22:20:00,37.8,37.0,30.09,SSE,157,0.0,0.0,97,0.00,,,0.32,Wunderground v.1.15,2013-05-27 02:20:00,
2013-05-26 22:21:00,37.8,37.0,30.09,SSE,157,0.0,1.0,97,0.00,,,0.32,Wunderground v.1.15,2013-05-27 02:21:00,
2013-05-26 22:22:00,37.7,36.9,30.09,SSE,157,0.0,1.0,97,0.00,,,0.32,Wunderground v.1.15,2013-05-27 02:22:00,
2013-05-26 22:24:00,37.7,36.9,30.09,SSE,157,0.0,1.0,97,0.00,,,0.32,Wunderground v.1.15,2013-05-27 02:24:00,
2013-05-26 22:26:00,37.6,36.8,30.10,SSE,157,0.0,1.0,97,0.00,,,0.32,Wunderground v.1.15,2013-05-27 02:26:00,
2013-05-26 22:28:00,37.5,36.7,30.09,SSE,157,0.0,1.0,97,0.00,,,0.32,Wunderground v.1.15,2013-05-27 02:28:00,
2013-05-26 22:29:00,37.5,36.7,30.09,SSE,157,0.0,1.0,97,0.00,,,0.32,Wunderground v.1.15,2013-05-27 02:29:00,
2013-05-26 22:31:00,37.5,36.7,30.09,SSE,157,1.0,1.0,97,0.00,,,0.32,Wunderground v.1.15,2013-05-27 02:31:00,
2013-05-26 22:33:00,37.5,36.7,30.09,SSE,157,0.0,1.0,97,0.00,,,0.32,Wunderground v.1.15,2013-05-27 02:33:00,
2013-05-26 22:34:00,37.5,37.0,30.09,SSE,157,0.0,1.0,98,0.00,,,0.32,Wunderground v.1.15,2013-05-27 02:34:00,
2013-05-26 22:36:00,37.5,37.0,30.09,SSE,157,0.0,1.0,98,0.00,,,0.32,Wunderground v.1.15,2013-05-27 02:36:00,
2013-05-26 22:38:00,37.5,37.0,30.09,SSE,157,0.0,1.0,98,0.00,,,0.32,Wunderground v.1.15,2013-05-27 02:38:00,
2013-05-26 22:39:00,37.5,37.0,30.09,SSE,157,0.0,1.0,98,0.00,,,0.32,Wunderground v.1.15,2013-05-27 02:39:00,
2013-05-26 22:41:00,37.5,37.0,30.09,SSE,157,0.0,0.0,98,0.00,,,0.32,Wunderground v.1.15,2013-05-27 02:41:00,
2013-05-26 22:42:00,37.5,37.0,30.09,SSE,157,0.0,0.0,98,0.00,,,0.32,Wunderground v.1.15,2013-05-27 02:42:00,
2013-05-26 22:43:00,37.6,37.1,30.09,SSE,157,0.0,1.0,98,0.00,,,0.32,Wunderground v.1.15,2013-05-27 02:43:00,
2013-05-26 22:44:00,37.7,37.2,30.09,SSE,157,0.0,1.0,98,0.00,,,0.32,Wunderground v.1.15,2013-05-27 02:44:00,
2013-05-26 22:46:00,37.7,37.2,30.09,SSE,157,0.0,1.0,98,0.00,,,0.32,Wunderground v.1.15,2013-05-27 02:46:00,
2013-05-26 22:47:00,37.7,37.2,30.09,SSE,157,0.0,1.0,98,0.00,,,0.32,Wunderground v.1.15,2013-05-27 02:47:00,
2013-05-26 22:48:00,37.7,37.2,30.09,SSE,157,0.0,1.0,98,0.00,,,0.32,Wunderground v.1.15,2013-05-27 02:48:00,
2013-05-26 22:49:00,37.7,37.2,30.10,SSE,157,0.0,1.0,98,0.00,,,0.32,Wunderground v.1.15,2013-05-27 02:49:00,
2013-05-26 22:50:00,37.7,37.2,30.10,SSE,157,0.0,0.0,98,0.00,,,0.32,Wunderground v.1.15,2013-05-27 02:50:00,
2013-05-26 22:51:00,37.7,37.2,30.10,SSE,157,0.0,0.0,98,0.00,,,0.32,Wunderground v.1.15,2013-05-27 02:51:00,
2013-05-26 22:52:00,37.7,37.2,30.09,SSE,157,0.0,0.0,98,0.00,,,0.32,Wunderground v.1.15,2013-05-27 02:52:00,
2013-05-26 22:53:00,37.7,37.2,30.09,SSE,157,0.0,0.0,98,0.00,,,0.32,Wunderground v.1.15,2013-05-27 02:53:00,
2013-05-26 22:54:00,37.7,37.2,30.09,SSE,157,0.0,0.0,98,0.00,,,0.32,Wunderground v.1.15,2013-05-27 02:54:00,
2013-05-26 22:55:00,37.7,37.2,30.09,SSE,157,0.0,0.0,98,0.00,,,0.32,Wunderground v.1.15,2013-05-27 02:55:00,
2013-05-26 22:57:00,37.8,37.3,30.10,SSE,157,0.0,0.0,98,0.00,,,0.32,Wunderground v.1.15,2013-05-27 02:57:00,
2013-05-26 22:58:00,37.8,37.3,30.09,SSE,157,0.0,0.0,98,0.00,,,0.32,Wunderground v.1.15,2013-05-27 02:58:00,
2013-05-26 22:59:00,37.8,37.3,30.09,SSE,157,0.0,0.0,98,0.00,,,0.32,Wunderground v.1.15,2013-05-27 02:59:00,
2013-05-26 23:00:00,37.8,37.3,30.09,NNW,329,0.0,0.0,98,0.00,,,0.32,Wunderground v.1.15,2013-05-27 03:00:00,
2013-05-26 23:03:00,38.0,37.2,30.09,WNW,296,0.0,3.0,97,0.00,,,0.32,Wunderground v.1.15,2013-05-27 03:03:00,
2013-05-26 23:04:00,38.0,37.2,30.09,West,275,3.0,4.0,97,0.00,,,0.32,Wunderground v.1.15,2013-05-27 03:04:00,
2013-05-26 23:05:00,38.1,37.6,30.10,West,268,1.0,4.0,98,0.00,,,0.32,Wunderground v.1.15,2013-05-27 03:05:00,
2013-05-26 23:08:00,38.3,37.5,30.10,NW,320,0.0,4.0,97,0.00,,,0.32,Wunderground v.1.15,2013-05-27 03:08:00,
2013-05-26 23:09:00,38.4,37.6,30.10,NNW,338,1.0,5.0,97,0.00,,,0.32,Wunderground v.1.15,2013-05-27 03:09:00,
2013-05-26 23:10:00,38.4,37.6,30.10,WSW,246,0.0,1.0,97,0.00,,,0.32,Wunderground v.1.15,2013-05-27 03:10:00,
2013-05-26 23:14:00,38.6,37.6,30.10,West,271,2.0,2.0,96,0.00,,,0.32,Wunderground v.1.15,2013-05-27 03:14:00,
2013-05-26 23:15:00,38.7,37.7,30.10,NNW,343,1.0,3.0,96,0.00,,,0.32,Wunderground v.1.15,2013-05-27 03:15:00,
2013-05-26 23:16:00,38.7,37.4,30.10,North,11,0.0,8.0,95,0.00,,,0.32,Wunderground v.1.15,2013-05-27 03:16:00,
2013-05-26 23:19:00,38.9,37.6,30.10,NW,310,0.0,8.0,95,0.00,,,0.32,Wunderground v.1.15,2013-05-27 03:19:00,
2013-05-26 23:20:00,38.9,37.6,30.10,NNW,341,0.0,2.0,95,0.00,,,0.32,Wunderground v.1.15,2013-05-27 03:20:00,
2013-05-26 23:21:00,39.0,37.7,30.10,NNW,329,4.0,5.0,95,0.00,,,0.32,Wunderground v.1.15,2013-05-27 03:21:00,
2013-05-26 23:24:00,39.1,37.5,30.10,West,279,0.0,5.0,94,0.00,,,0.32,Wunderground v.1.15,2013-05-27 03:24:00,
2013-05-26 23:25:00,39.1,37.5,30.10,NNW,341,5.0,6.0,94,0.00,,,0.32,Wunderground v.1.15,2013-05-27 03:25:00,
2013-05-26 23:26:00,39.2,37.6,30.10,NNE,28,0.0,6.0,94,0.00,,,0.32,Wunderground v.1.15,2013-05-27 03:26:00,
2013-05-26 23:29:00,39.4,37.8,30.10,WSW,254,0.0,8.0,94,0.00,,,0.32,Wunderground v.1.15,2013-05-27 03:29:00,
2013-05-26 23:30:00,39.5,37.6,30.10,SSW,196,0.0,1.0,93,0.00,,,0.32,Wunderground v.1.15,2013-05-27 03:30:00,
2013-05-26 23:31:00,39.5,37.6,30.10,West,273,0.0,4.0,93,0.00,,,0.32,Wunderground v.1.15,2013-05-27 03:31:00,
2013-05-26 23:34:00,39.5,37.6,30.10,NW,323,0.0,4.0,93,0.00,,,0.32,Wunderground v.1.15,2013-05-27 03:34:00,
2013-05-26 23:35:00,39.6,37.7,30.10,WSW,237,1.0,4.0,93,0.00,,,0.32,Wunderground v.1.15,2013-05-27 03:35:00,
2013-05-26 23:37:00,39.5,37.6,30.10,WSW,252,5.0,5.0,93,0.00,,,0.32,Wunderground v.1.15,2013-05-27 03:37:00,
2013-05-26 23:40:00,39.5,37.4,30.10,NNW,340,1.0,1.0,92,0.00,,,0.32,Wunderground v.1.15,2013-05-27 03:40:00,
2013-05-26 23:42:00,39.6,37.5,30.10,NW,304,0.0,1.0,92,0.00,,,0.32,Wunderground v.1.15,2013-05-27 03:42:00,
2013-05-26 23:45:00,39.6,37.5,30.10,NW,314,1.0,7.0,92,0.00,,,0.32,Wunderground v.1.15,2013-05-27 03:45:00,
2013-05-26 23:46:00,39.6,37.5,30.10,NW,314,0.0,7.0,92,0.00,,,0.32,Wunderground v.1.15,2013-05-27 03:46:00,
2013-05-26 23:47:00,39.6,37.5,30.10,WNW,299,0.0,7.0,92,0.00,,,0.32,Wunderground v.1.15,2013-05-27 03:47:00,
2013-05-26 23:50:00,39.6,37.5,30.10,North,355,1.0,1.0,92,0.00,,,0.32,Wunderground v.1.15,2013-05-27 03:50:00,
2013-05-26 23:51:00,39.6,37.5,30.10,North,350,4.0,5.0,92,0.00,,,0.32,Wunderground v.1.15,2013-05-27 03:51:00,
2013-05-26 23:52:00,39.6,37.5,30.10,NNW,328,0.0,5.0,92,0.00,,,0.32,Wunderground v.1.15,2013-05-27 03:52:00,
2013-05-26 23:55:00,39.7,37.6,30.10,NW,321,3.0,6.0,92,0.00,,,0.32,Wunderground v.1.15,2013-05-27 03:55:00,
2013-05-26 23:56:00,39.8,37.7,30.10,NNW,346,0.0,6.0,92,0.00,,,0.32,Wunderground v.1.15,2013-05-27 03:56:00,
2013-05-26 23:57:00,39.8,37.7,30.10,NNE,27,1.0,6.0,92,0.00,,,0.32,Wunderground v.1.15,2013-05-27 03:57:00,